[{"header": {"dx": 0.06612293990616946, "dy": 0.0552356325346848, "nx": 98, "ny": 59, "la1": 35.046912555036876, "la2": 31.78801023549047, "lo1": -121.43107172385933, "lo2": -114.95102361305473, "refTime": "2026042003", "parameterCategory": 1, "parameterNumber": 2}, "data": [3.39, 3.53, 3.09, 3.13, 3.13, 2.68, 2.68, 2.24, 1.79, 1.34, 1.34, 1.79, 2.68, 1.79, 3.13, 2.24, 2.24, 2.68, 2.68, 2.68, 2.54, 2.97, 3.74, 5.09, 5.59, 6.28, 7.35, 8.0, 8.14, 8.55, 7.67, 5.09, 2.6, 1.34, 0.89, 0.89, 1.79, 1.58, -0.0, -1.47, -2.01, -1.58, -1.01, -0.0, 1.49, 2.79, 3.84, 4.46, 4.84, 5.43, 6.07, 5.46, 6.0, 6.4, 6.28, 6.07, 6.07, 6.21, 6.21, 5.77, 5.77, 4.87, 4.85, 3.83, 3.48, 4.43, 5.09, 5.69, 6.0, 7.06, 8.14, 7.71, 7.42, 5.77, 5.77, 6.66, 5.32, 6.26, 5.32, 3.72, 1.23, -0.0, -0.0, -0.59, -1.33, -2.07, -2.07, -1.84, -1.13, -0.0, 0.61, 1.16, 1.88, 2.21, 3.07, 3.39, 3.82, 3.6, 3.39, 3.53, 3.53, 3.13, 3.13, 2.68, 2.68, 2.24, 1.79, 1.34, 1.34, 2.24, 1.34, 1.79, 4.02, 4.47, 2.24, 2.24, 2.68, 2.24, 2.24, 2.97, 3.6, 4.65, 3.84, 4.46, 5.43, 6.7, 6.28, 4.43, 1.55, -0.76, -1.88, -1.9, -0.54, -0.0, 1.2, 1.33, -0.0, -2.21, -2.41, -1.04, -0.0, 1.41, 2.15, 3.83, 4.4, 4.46, 4.84, 5.09, 5.46, 6.07, 7.35, 7.56, 6.42, 6.55, 6.07, 6.21, 5.77, 5.75, 5.31, 4.85, 3.45, 3.79, 3.43, 4.46, 5.05, 5.16, 5.64, 6.55, 7.45, 7.11, 5.77, 6.26, 5.81, 6.26, 4.92, 6.26, 5.32, 3.72, 1.23, -0.0, -0.0, -0.59, -1.33, -2.07, -2.07, -1.84, -1.13, -0.0, 0.61, 1.16, 1.88, 2.21, 3.07, 3.39, 3.82, 3.6, 3.39, 3.53, 3.53, 3.53, 3.13, 3.13, 2.68, 2.24, 1.79, 1.34, 0.89, 1.34, 1.34, 1.79, 3.13, 3.58, 2.24, 2.68, 2.68, 2.68, 2.24, 2.24, 2.23, 2.68, 4.22, 4.95, 4.11, 3.58, 1.4, -0.0, -1.54, -3.09, -3.16, -2.07, -0.63, -0.0, 0.67, 1.45, -0.0, -2.21, -2.12, -0.0, 1.33, 2.86, 3.32, 4.15, 3.83, 4.22, 4.46, 5.05, 5.43, 6.94, 7.47, 8.14, 6.58, 6.07, 5.77, 5.31, 5.77, 4.87, 4.41, 3.74, 3.48, 4.01, 3.79, 4.4, 4.66, 5.16, 5.16, 5.77, 6.98, 7.11, 6.26, 5.36, 3.58, 5.36, 4.47, 5.81, 5.36, 3.6, 0.57, -0.0, -0.0, -0.0, -0.66, -1.23, -2.0, -1.49, -1.13, -0.0, 0.61, 1.16, 1.88, 2.21, 2.68, 3.07, 3.07, 3.6, 3.82, 3.53, 3.53, 3.53, 3.58, 3.13, 3.13, 2.68, 2.24, 1.27, 1.2, 1.2, 1.34, 1.79, 2.24, 2.68, 2.68, 2.68, 2.6, 2.6, 2.24, 2.24, 1.79, 1.86, 3.16, 4.47, 1.47, -0.0, -1.55, -1.54, -1.58, -3.11, -4.43, -3.63, -0.96, -0.0, -0.0, 0.94, -0.0, -0.0, -0.0, 0.65, 1.86, 2.68, 3.13, 3.51, 3.51, 4.15, 4.8, 5.34, 5.86, 7.28, 7.89, 7.89, 6.07, 6.07, 5.31, 4.87, 4.87, 4.85, 3.74, 2.84, 2.98, 3.79, 4.81, 4.84, 4.4, 4.66, 5.31, 6.25, 6.64, 6.94, 6.51, 4.92, 3.13, 3.53, 4.4, 4.3, 4.92, 2.68, -0.0, -0.0, -0.0, -0.0, -0.0, -0.73, -0.73, -1.27, -0.59, -0.0, 0.61, 1.16, 1.88, 2.5, 1.9, 2.21, 2.79, 3.14, 3.87, 3.87, 3.54, 3.53, 3.58, 3.13, 3.13, 2.68, 2.24, 1.7, 1.2, 1.2, 2.0, 1.7, 2.17, 2.6, 3.07, 3.07, 3.07, 2.4, 2.12, 2.24, 2.12, 1.49, 1.4, -0.0, -1.0, -2.04, -1.04, -0.0, -0.0, -2.3, -5.86, -5.34, -2.15, -0.0, -0.0, 0.7, 0.66, -0.0, 0.7, 1.6, 1.9, 2.17, 2.24, 2.68, 2.68, 3.07, 4.24, 5.64, 5.64, 6.98, 6.98, 6.98, 6.51, 6.21, 5.31, 4.47, 4.41, 3.51, 2.86, 2.79, 2.73, 3.43, 4.65, 5.59, 5.3, 4.65, 5.37, 6.32, 7.68, 8.3, 7.46, 5.75, 3.51, 3.39, 3.14, 2.68, 2.23, 2.53, -0.0, -0.0, -0.0, -0.0, -0.0, -0.63, -0.57, -0.66, -0.59, -0.0, -0.0, 0.59, 1.84, 1.61, 1.16, 1.84, 2.84, 3.35, 3.87, 3.87, 3.98, 3.54, 3.58, 3.58, 3.13, 3.13, 2.68, 2.17, 1.2, 1.2, 2.0, 2.0, 2.6, 2.4, 2.8, 2.8, 2.8, 2.5, 1.9, 1.49, 1.26, -0.0, -0.0, -2.26, -3.17, -1.01, -0.0, 0.96, 0.7, -1.6, -5.34, -6.55, -2.91, -1.24, -0.0, 0.65, 1.2, -0.0, -0.0, 0.88, 3.11, 3.64, 3.45, 2.6, 2.68, 2.68, 3.58, 5.31, 6.07, 6.51, 6.21, 6.21, 6.21, 6.71, 5.81, 4.47, 3.58, 3.32, 2.15, 2.15, 2.2, 3.0, 3.8, 6.2, 6.97, 6.42, 5.59, 6.01, 7.67, 8.0, 7.6, 7.35, 4.0, 2.68, 1.34, 0.54, 0.57, 1.8, 1.27, 0.59, -0.0, -0.0, -0.0, -0.0, -0.0, -0.0, -0.0, -0.0, -0.0, 0.59, 1.16, 0.61, 0.59, 1.8, 2.84, 3.6, 3.87, 3.87, 3.98, 3.98, 3.54, 3.58, 3.58, 3.13, 3.13, 2.6, 2.12, 1.49, 2.54, 2.12, 4.4, 2.23, 2.5, 2.5, 2.86, 2.53, 2.15, 1.58, 0.63, -0.0, -0.76, -1.4, -1.4, -0.0, 0.71, 1.2, -0.0, -2.88, -5.82, -6.0, -3.82, -2.15, -0.54, 0.65, 1.4, 0.65, -0.0, -0.0, 0.87, 2.99, 5.37, 5.72, 5.09, 3.32, 2.68, 6.14, 6.79, 5.75, 6.21, 6.26, 6.71, 6.66, 5.75, 3.58, 2.68, 2.8, 2.21, 1.4, 1.49, 2.35, 3.15, 5.76, 7.82, 7.64, 7.03, 7.21, 7.56, 7.6, 6.71, 5.81, 2.4, -0.0, -0.0, -0.0, -0.0, 1.35, 2.48, 1.84, 0.61, -0.0, -0.0, -0.0, -0.0, -0.0, -0.0, -0.0, -0.0, -0.0, -0.0, -0.0, 0.66, 1.8, 3.14, 3.6, 3.87, 3.87, 3.98, 3.98, 3.98, 3.58, 3.58, 3.58, 3.13, 3.07, 2.4, 1.86, 1.6, 2.17, 4.77, 2.86, 2.5, 3.22, 3.49, 3.83, 2.86, 2.6, 1.7, -0.0, -0.45, -0.89, 0.45, 0.0, 0.45, -0.71, -2.95, -3.63, -3.48, -3.2, -2.91, -2.6, -1.86, -0.0, 1.49, 1.74, 1.24, 0.8, 1.0, 2.23, 3.58, 5.37, 6.32, 6.24, 5.37, 6.52, 4.4, 4.87, 6.71, 7.42, 6.79, 6.28, 4.66, 2.91, 2.24, 2.17, 1.86, 1.4, 0.7, 1.63, 3.09, 5.59, 8.67, 9.33, 8.05, 7.56, 7.89, 7.42, 6.79, 3.45, 0.63, -0.59, -0.0, -0.0, 0.67, 2.11, 3.38, 2.84, 1.84, 1.13, -0.0, -0.0, 0.59, 0.7, 0.61, 0.61, 0.61, -0.0, -0.0, -0.0, 1.27, 2.51, 3.14, 3.6, 3.87, 3.87, 3.98, 3.98, 3.98, 4.02, 3.58, 3.58, 3.53, 3.09, 2.91, 2.5, 1.58, 1.9, 2.8, 2.8, 2.5, 2.86, 2.86, 2.8, 2.54, 2.68, 2.12, -0.0, -0.45, 0.45, 0.63, 0.63, -0.89, -2.86, -2.86, -2.23, -2.12, -1.79, -1.79, -1.79, -1.34, -0.45, 0.63, 2.54, 2.6, 2.23, 1.86, 2.23, 2.6, 3.45, 4.19, 5.46, 7.08, 7.52, 8.58, 6.07, 5.75, 5.43, 5.09, 4.81, 3.84, 2.53, 1.7, 2.12, 2.2, 1.55, 1.63, 2.4, 3.69, 6.44, 8.4, 9.36, 7.45, 7.03, 6.44, 6.8, 6.07, 2.53, -0.0, -1.33, -1.27, -0.0, 0.63, 2.6, 3.9, 3.79, 3.16, 2.07, 1.27, 0.66, 0.59, 0.7, 0.61, 0.53, 0.51, -0.0, -0.0, -0.0, 1.13, 2.51, 3.14, 3.6, 4.3, 3.87, 3.98, 3.98, 3.98, 4.02, 4.02, 4.02, 3.53, 3.53, 3.39, 3.07, 3.43, 3.48, 2.5, 2.5, 2.86, 2.53, 2.53, 1.9, 1.6, 1.79, 1.79, 0.89, 0.0, 0.45, 0.89, 0.45, -1.34, -2.6, -1.79, -0.89, 0.0, -0.63, -1.34, -1.34, 0.45, 0.0, 1.34, 3.13, 3.51, 2.8, 2.8, 2.23, 2.4, 2.8, 2.86, 3.16, 5.37, 8.03, 7.64, 4.83, 1.49, -0.0, 0.45, 0.0, 0.57, 0.6, 1.2, 0.81, 1.54, 2.34, 3.18, 3.85, 4.71, 5.3, 6.07, 5.6, 2.68, 2.15, 3.07, 4.11, 4.43, 1.88, 0.57, -0.59, -0.59, -0.0, 0.59, 1.8, 3.12, 4.71, 4.02, 4.07, 2.66, 1.94, 1.23, 1.13, 1.16, 0.61, 0.51, 0.59, -0.0, -0.0, 0.59, 2.23, 3.14, 3.6, 4.3, 4.3, 4.3, 3.98, 3.98, 4.02, 4.02, 4.02, 3.98, 3.98, 3.82, 3.6, 3.88, 4.0, 3.58, 3.83, 4.19, 4.55, 3.88, 3.2, 2.12, 1.7, 2.12, 1.79, 2.68, 0.45, 0.63, 0.63, 0.0, -0.89, -0.63, -0.63, 0.0, -0.63, -0.8, -0.89, 0.0, 1.34, 2.17, 3.51, 4.8, 2.86, 2.86, 5.2, 5.2, 2.23, 1.4, 1.6, 3.16, 4.01, 1.6, -0.75, -2.35, -0.79, -0.0, -0.0, -0.0, -0.0, -0.0, -0.0, 0.77, 2.31, 3.96, 4.65, 4.65, 2.99, 1.56, 0.74, 0.72, 0.71, 1.2, 1.2, 1.84, 1.2, 0.6, -0.0, -0.0, -0.0, 0.61, 1.4, 1.84, 3.43, 5.37, 5.0, 3.97, 2.72, 2.04, 1.23, 1.94, 1.13, 1.33, 1.16, 0.61, 0.59, 1.33, 1.84, 2.53, 3.07, 4.3, 4.3, 4.3, 4.43, 4.44, 4.47, 4.02, 4.02, 3.98, 3.98, 3.87, 4.11, 3.88, 4.8, 5.08, 5.6, 6.04, 5.72, 5.79, 5.36, 4.92, 4.02, 3.58, 5.36, 4.92, 4.47, 4.47, 2.24, 1.79, 1.6, 1.7, 1.79, 0.45, 0.45, 0.95, 0.63, 1.34, 2.12, 2.4, 3.2, 4.09, 3.84, 3.84, 5.81, 5.2, 1.49, -0.0, 0.88, 1.05, -0.0, -3.02, -4.65, -3.78, -2.35, -0.76, 0.76, 2.35, 1.52, -0.0, -0.0, 0.76, 2.34, 3.91, 3.91, 1.51, -0.0, -0.0, -0.0, 0.77, 2.95, 4.87, 4.94, 2.24, 1.26, -0.0, -0.0, -0.0, 0.61, 1.4, 1.2, 1.2, 1.84, 3.72, 5.3, 4.94, 3.6, 2.82, 2.2, 2.04, 2.44, 2.07, 1.88, 1.16, 1.16, 1.33, 1.84, 2.21, 2.21, 4.3, 4.3, 4.34, 4.44, 4.44, 4.47, 4.47, 4.47, 4.47, 4.44, 4.34, 4.34, 4.6, 4.8, 5.31, 5.88, 6.51, 7.13, 7.15, 7.6, 7.13, 6.26, 5.81, 5.81, 5.81, 6.26, 6.68, 6.23, 4.92, 4.47, 3.07, 2.68, 2.24, 2.24, 3.04, 2.68, 2.6, 3.2, 2.21, 2.86, 3.32, 3.74, 3.74, 3.04, 1.58, -0.0, -0.0, -0.0, -0.0, -0.96, -3.55, -5.64, -6.01, -4.29, -1.98, -0.0, 2.06, 3.18, 1.5, 0.73, 1.52, 2.28, 3.25, 1.52, -0.0, -2.33, -2.13, -0.78, 1.58, 4.65, 6.9, 7.63, 5.3, 1.9, 0.65, 0.61, 1.33, 2.07, 2.73, 2.51, 1.88, 2.53, 3.14, 3.45, 4.65, 3.69, 3.91, 2.66, 2.72, 3.26, 3.38, 2.51, 1.88, 1.88, 1.84, 1.84, 1.61, 1.88, 4.3, 4.34, 4.34, 4.44, 4.44, 4.47, 4.47, 4.47, 4.47, 4.44, 4.34, 4.77, 4.6, 5.09, 5.31, 5.81, 6.47, 6.61, 7.13, 7.6, 7.15, 7.15, 6.71, 6.71, 6.71, 6.71, 7.15, 7.15, 6.71, 5.81, 5.24, 4.41, 5.36, 2.68, 3.13, 2.68, 2.6, 2.5, 2.23, 2.4, 3.07, 3.13, 2.68, 4.24, -0.0, -0.0, -0.0, -0.0, -0.0, -0.85, -2.21, -4.0, -3.47, -3.13, -1.79, -0.45, -0.0, 0.96, 4.4, 2.9, 0.74, 1.05, 1.09, -0.0, -0.0, -1.62, -2.89, -1.4, 2.17, 4.96, 7.08, 6.05, 4.71, 3.55, 2.4, 2.3, 2.07, 2.98, 3.72, 4.43, 3.79, 3.49, 3.07, 3.32, 3.14, 3.72, 3.79, 3.09, 2.66, 3.26, 4.22, 3.43, 2.51, 1.88, 2.53, 2.15, 1.84, 1.84, 4.19, 4.34, 4.34, 4.44, 4.44, 4.47, 4.47, 4.47, 4.47, 4.44, 4.88, 4.77, 4.8, 5.09, 5.09, 5.57, 5.99, 6.04, 6.6, 6.68, 6.71, 6.71, 6.71, 6.71, 6.71, 6.71, 6.71, 7.15, 7.15, 6.71, 6.16, 5.09, 6.14, 5.36, 4.92, 4.77, 4.09, 1.9, 4.8, 2.6, 2.68, 5.81, 4.77, 3.2, -0.0, -0.0, -0.0, -0.0, -0.0, -0.8, -1.26, -0.95, 0.45, 0.0, 0.0, 0.0, -0.89, -0.0, 3.78, 5.37, 1.41, -0.0, -0.0, 0.96, 0.96, -0.0, -1.08, -0.0, 2.23, 3.22, 3.33, 3.9, 3.9, 3.9, 4.07, 4.43, 3.79, 4.01, 4.74, 6.08, 6.44, 6.07, 5.2, 3.82, 3.07, 2.53, 2.0, 2.35, 2.66, 3.09, 4.46, 5.0, 3.43, 2.51, 2.84, 2.51, 1.84, 1.84, 4.19, 4.34, 4.34, 4.44, 4.44, 4.44, 4.47, 4.92, 4.92, 4.92, 4.89, 4.89, 4.8, 5.24, 5.09, 5.57, 5.57, 5.57, 6.16, 6.23, 6.23, 6.26, 6.26, 6.71, 6.71, 6.71, 7.15, 7.15, 7.6, 7.15, 6.68, 6.04, 5.57, 6.14, 5.36, 2.12, 2.21, 2.41, 5.2, 4.92, 2.68, 2.63, 4.47, 2.48, -0.0, -0.0, -0.0, -0.0, -0.0, 1.4, -0.0, 0.89, 1.79, 2.12, 2.12, 1.6, 0.89, 1.2, 3.13, 5.4, 3.48, 2.32, 2.4, 3.79, 1.58, 0.8, 0.6, 0.6, 0.85, 1.08, 1.49, 2.15, 3.49, 4.46, 5.05, 4.46, 5.43, 6.06, 6.39, 6.7, 7.68, 8.06, 7.07, 5.75, 3.74, 2.8, 1.84, 1.27, 1.47, 2.29, 3.79, 4.74, 3.15, 3.16, 4.12, 2.84, 2.51, 2.51, 4.6, 4.34, 4.34, 4.34, 4.44, 4.88, 4.92, 4.92, 4.92, 4.92, 4.89, 4.89, 5.24, 5.24, 5.24, 5.7, 5.57, 5.7, 5.72, 6.23, 6.23, 6.23, 6.23, 6.26, 6.71, 7.15, 7.58, 7.58, 7.58, 7.58, 7.51, 6.94, 6.04, 6.36, 2.68, 2.12, 1.86, 2.54, 2.68, 5.36, 4.77, 2.12, 3.2, 1.0, 1.19, -0.0, -0.0, 1.41, 2.23, 3.16, 3.72, 3.72, 4.09, 4.4, 4.09, 4.09, 4.77, 5.36, 5.7, 6.13, 5.37, 4.74, 4.65, 4.8, 5.2, 2.17, 1.34, -0.0, -0.0, -0.0, 2.23, 3.13, 3.58, 3.97, 4.73, 5.05, 6.01, 7.64, 8.68, 8.32, 8.03, 8.32, 7.92, 7.28, 6.4, 3.84, 1.84, 1.27, 1.49, 2.73, 5.38, 5.38, 3.48, 3.16, 4.09, 3.72, 2.84, 2.84, 4.6, 4.77, 4.77, 4.77, 4.88, 4.88, 4.92, 4.92, 4.92, 4.92, 4.92, 4.89, 5.33, 5.24, 5.24, 5.26, 5.7, 5.7, 5.7, 6.23, 6.16, 6.61, 6.16, 6.23, 6.71, 7.15, 7.07, 7.07, 7.51, 7.87, 7.87, 7.4, 6.79, 5.88, 5.09, 3.95, 2.12, 2.23, 2.8, 3.2, 2.8, 2.24, 1.34, 0.8, 1.27, 1.41, 1.41, 2.48, 2.73, 4.09, 4.8, 5.2, 5.2, 5.2, 4.65, 4.65, 4.65, 5.37, 5.59, 5.37, 6.28, 5.93, 5.75, 5.81, 5.7, 2.24, 1.7, 0.63, 0.0, 1.2, 4.38, 6.21, 6.21, 6.26, 5.31, 3.83, 5.43, 8.67, 9.84, 8.88, 8.05, 8.0, 8.14, 6.64, 4.46, 2.98, 2.0, 1.41, 1.84, 2.51, 3.79, 5.06, 4.41, 4.09, 4.0, 4.0, 4.09, 4.09, 4.6, 4.77, 4.77, 4.77, 4.88, 4.88, 4.92, 4.92, 4.92, 4.92, 4.92, 5.33, 5.33, 5.24, 5.24, 4.85, 4.8, 5.24, 5.33, 5.78, 6.61, 6.47, 5.4, 5.09, 5.75, 6.17, 5.09, 5.34, 5.75, 6.3, 6.6, 6.6, 6.6, 6.1, 5.6, 5.31, 4.55, 4.71, 4.46, 3.58, 3.32, 2.6, 1.79, 3.82, 3.16, 2.73, 2.73, 3.48, 4.09, 4.8, 4.8, 5.2, 5.2, 4.29, 3.76, 4.74, 4.74, 4.74, 5.93, 5.93, 6.8, 6.4, 6.36, 3.95, 3.13, 2.24, 0.8, 0.57, 1.79, 3.16, 7.4, 9.72, 12.07, 12.05, 9.81, 6.21, 4.47, 7.6, 9.81, 9.72, 7.56, 8.01, 7.6, 6.58, 4.52, 3.16, 2.51, 2.0, 2.79, 2.53, 2.84, 4.12, 5.09, 4.52, 4.0, 4.0, 3.14, 3.14, 4.6, 4.6, 4.77, 4.77, 4.88, 4.88, 4.89, 4.92, 4.92, 4.92, 4.92, 5.33, 5.33, 5.33, 5.24, 5.24, 4.8, 4.77, 4.38, 4.41, 5.59, 5.31, 4.55, 4.84, 4.84, 5.2, 4.66, 3.72, 3.88, 3.88, 4.0, 4.55, 5.08, 5.47, 5.6, 5.6, 5.6, 5.75, 6.1, 5.88, 6.16, 6.26, 5.78, 5.09, 4.4, 4.8, 4.09, 4.09, 4.4, 4.8, 4.8, 4.8, 4.8, 4.11, 1.88, 2.07, 5.37, 3.79, 4.19, 6.13, 6.79, 6.23, 6.14, 6.26, 2.24, 0.8, -0.0, 0.65, 2.23, 4.92, 7.6, 11.15, 14.23, 16.07, 15.2, 11.4, 7.67, 7.06, 8.91, 8.36, 8.46, 8.46, 7.56, 5.32, 3.72, 3.15, 1.94, 1.94, 2.48, 2.51, 2.53, 4.0, 4.93, 4.3, 3.82, 3.6, 3.14, 3.14, 4.6, 4.6, 4.77, 4.77, 4.88, 4.89, 4.89, 4.92, 4.92, 4.92, 5.36, 5.36, 5.33, 5.34, 5.24, 5.24, 5.24, 5.09, 5.09, 5.34, 6.02, 4.6, 3.88, 4.07, 5.21, 5.08, 4.6, 4.11, 3.39, 2.91, 2.91, 3.07, 3.35, 3.88, 4.4, 4.55, 5.08, 5.81, 6.51, 7.07, 7.6, 7.58, 7.52, 6.94, 5.81, 5.81, 4.8, 5.2, 5.2, 5.2, 5.2, 5.2, 4.46, 3.22, 2.32, 1.84, 3.35, 4.43, 5.59, 5.81, 5.7, 5.7, 5.81, 5.36, 1.6, -0.0, -0.0, 0.79, 2.53, 4.11, 6.08, 9.2, 12.14, 13.86, 14.11, 12.7, 8.44, 8.01, 7.18, 7.06, 7.89, 8.19, 6.26, 4.66, 4.01, 1.94, 1.47, 1.3, 2.11, 3.12, 3.14, 3.6, 4.73, 4.43, 3.53, 3.07, 2.51, 2.51, 4.6, 4.6, 4.77, 4.77, 4.88, 4.89, 4.89, 4.92, 4.92, 4.92, 5.36, 5.36, 5.34, 5.34, 5.26, 5.26, 5.24, 5.57, 5.81, 6.3, 6.47, 5.7, 4.6, 4.8, 5.08, 5.4, 5.57, 5.7, 5.33, 4.92, 4.47, 3.98, 3.39, 3.2, 3.6, 3.88, 4.4, 5.31, 6.04, 6.61, 7.13, 7.6, 7.58, 7.06, 6.04, 5.09, 5.7, 5.2, 4.92, 4.92, 5.36, 4.77, 3.48, 2.4, 2.6, 2.8, 2.73, 4.29, 5.69, 4.8, 2.24, 2.68, 3.13, 2.24, 1.4, -0.0, -0.0, -0.0, 0.7, 0.96, 2.32, 5.44, 8.3, 8.19, 5.06, 6.17, 6.94, 7.11, 6.36, 6.36, 7.02, 5.86, 4.02, 2.51, 2.0, 1.94, 1.94, 2.0, 2.23, 3.78, 4.37, 4.11, 4.3, 3.98, 3.32, 2.53, 2.51, 2.51, 4.6, 4.6, 4.6, 4.77, 4.88, 4.89, 4.89, 4.92, 4.92, 5.36, 5.36, 5.36, 5.34, 5.34, 5.78, 5.7, 5.7, 5.57, 5.81, 6.3, 6.51, 6.47, 6.16, 6.04, 6.04, 6.04, 6.04, 6.16, 6.68, 6.71, 6.71, 6.26, 5.34, 4.89, 4.34, 4.11, 4.11, 4.6, 5.09, 6.14, 6.23, 6.71, 6.71, 6.23, 5.7, 5.24, 6.14, 5.36, 4.92, 4.92, 4.92, 4.09, 2.73, 2.4, 2.4, 2.4, 1.6, 2.88, 4.22, 3.07, 1.2, 0.89, 1.79, 1.24, 0.79, -0.0, -0.0, -0.0, -0.0, -0.0, -0.0, 0.71, 6.64, 5.4, 1.26, 0.73, 2.9, 4.8, 5.4, 5.6, 4.87, 2.73, 2.68, 1.88, 1.16, 1.84, 2.07, 2.23, 3.14, 4.0, 5.2, 5.44, 3.82, 3.39, 3.07, 2.23, 2.51, 2.51, 4.6, 4.6, 4.6, 4.77, 4.88, 4.89, 4.89, 4.92, 4.92, 5.36, 5.36, 5.36, 5.36, 5.78, 5.78, 5.7, 5.7, 5.57, 5.99, 6.04, 6.47, 6.51, 6.94, 6.94, 6.94, 7.06, 7.06, 7.06, 7.06, 7.13, 7.13, 7.13, 6.68, 6.23, 5.78, 5.24, 5.24, 5.24, 5.24, 5.7, 6.23, 6.23, 6.26, 6.26, 5.81, 4.92, 6.26, 5.81, 4.92, 4.92, 5.2, 4.8, 3.48, 2.73, 2.73, 2.73, 1.24, 1.2, 1.8, 3.97, 1.4, 0.63, 0.6, 0.65, -0.0, -0.0, -0.0, 1.18, 0.79, -0.0, 0.0, 3.13, 9.36, 10.25, 8.37, 3.82, 1.98, 2.26, 3.99, 3.46, 2.7, 2.66, 2.17, 1.2, 0.6, 1.24, 2.15, 2.68, 3.32, 3.6, 5.05, 4.66, 4.66, 3.45, 2.53, 2.53, 2.53, 2.53, 4.6, 4.6, 4.6, 4.77, 4.77, 4.88, 4.89, 4.92, 4.92, 5.36, 5.36, 5.36, 5.36, 5.78, 5.78, 5.7, 5.7, 5.99, 6.04, 6.04, 6.47, 6.3, 6.36, 6.94, 6.97, 7.4, 7.51, 7.51, 7.07, 7.07, 7.07, 7.13, 7.13, 6.68, 6.68, 6.16, 6.16, 5.7, 5.7, 6.16, 6.23, 6.23, 6.26, 6.26, 5.81, 5.81, 5.81, 6.26, 6.26, 6.23, 5.7, 6.61, 4.8, 4.09, 3.16, 2.48, 3.16, 0.8, 0.8, 1.88, 4.11, 3.2, 1.26, -0.0, -0.0, -0.0, -0.0, 0.72, 0.81, -0.0, 0.71, 3.84, 9.39, 11.66, 12.04, 10.8, 7.73, 3.13, 2.16, 1.49, 2.06, 2.66, 1.86, 0.45, -0.0, 1.26, 1.86, 2.8, 2.5, 2.53, 2.51, 4.11, 4.12, 3.84, 3.14, 2.79, 2.53, 2.53, 4.6, 4.6, 4.6, 4.77, 4.77, 4.88, 4.89, 4.92, 4.92, 5.36, 5.36, 5.36, 5.81, 5.78, 5.78, 5.78, 6.14, 6.16, 6.04, 6.04, 6.04, 6.3, 6.3, 6.36, 6.94, 6.94, 6.97, 7.4, 7.51, 7.07, 7.07, 7.07, 7.06, 7.13, 6.68, 6.68, 6.6, 6.16, 6.16, 6.16, 6.23, 6.23, 6.23, 6.26, 6.26, 6.26, 6.26, 6.71, 6.71, 6.71, 6.71, 6.26, 6.26, 4.77, 3.72, 3.72, 2.84, 3.2, 1.9, 0.95, 2.8, 5.37, 3.22, 0.8, -0.0, -0.0, -0.0, -0.0, -0.0, -0.0, 0.8, 2.53, 6.66, 10.16, 10.68, 10.87, 10.73, 8.25, 3.32, 0.63, 2.18, 2.0, 0.6, -0.63, -0.42, 0.57, 1.58, 2.15, 1.61, 1.4, 1.61, 2.86, 3.78, 3.72, 3.72, 3.45, 2.53, 2.53, 4.6, 4.6, 4.6, 4.77, 4.77, 4.88, 4.89, 4.89, 4.92, 5.36, 5.36, 5.36, 5.81, 5.81, 5.78, 5.78, 6.16, 6.16, 6.04, 6.04, 6.04, 6.47, 6.3, 6.3, 6.36, 6.94, 6.94, 6.94, 6.94, 7.07, 7.07, 7.06, 7.06, 7.06, 6.61, 6.61, 6.61, 6.61, 6.6, 6.23, 6.23, 6.23, 6.26, 6.26, 6.26, 6.26, 6.26, 6.71, 6.71, 6.71, 6.71, 6.71, 5.81, 4.92, 3.58, 2.12, 4.24, 3.82, 0.6, -0.0, 1.34, 3.51, 4.77, 2.23, 1.3, -0.0, -0.0, 0.8, 0.63, 0.89, 1.6, 2.41, 4.8, 6.71, 7.89, 8.67, 8.88, 8.25, 4.47, 2.23, 1.11, 0.53, -0.89, -1.86, -0.99, -0.0, 1.26, 1.58, 1.2, 1.2, 1.9, 2.5, 3.14, 4.0, 4.0, 3.6, 2.79, 2.79, 4.6, 4.6, 4.6, 4.77, 4.77, 4.77, 4.88, 4.89, 4.92, 5.36, 5.36, 5.36, 5.81, 5.81, 5.78, 5.79, 6.16, 6.16, 6.16, 6.04, 6.04, 6.47, 6.47, 6.47, 6.47, 6.51, 6.94, 6.51, 6.51, 6.51, 7.06, 7.06, 7.06, 6.61, 6.61, 6.61, 6.61, 6.61, 6.16, 6.23, 6.23, 5.79, 5.81, 5.81, 5.81, 6.26, 6.71, 6.71, 6.68, 6.68, 6.68, 6.68, 5.79, 5.33, 4.44, 2.24, 4.47, 4.02, 0.95, -0.0, 0.89, 2.24, 4.02, 2.6, 1.6, 1.14, 0.71, 1.34, 2.0, 1.26, 1.58, 2.86, 3.84, 3.45, 3.58, 6.71, 8.49, 7.56, 5.32, 3.53, 1.61, 0.54, -0.45, -1.26, -0.6, -0.0, 0.6, 0.57, 1.24, 1.58, 1.86, 2.17, 3.82, 4.3, 4.3, 3.82, 3.6, 3.6, 4.6, 4.6, 4.6, 4.77, 4.77, 4.77, 4.88, 4.89, 4.92, 4.92, 5.36, 5.36, 5.81, 5.81, 5.78, 5.79, 6.23, 6.16, 6.16, 6.04, 6.04, 6.04, 6.47, 6.47, 6.47, 6.47, 6.47, 6.51, 6.51, 6.51, 6.51, 6.61, 6.61, 6.61, 6.61, 6.61, 6.61, 6.6, 6.16, 6.23, 6.23, 5.78, 5.34, 4.92, 4.92, 5.78, 6.71, 6.61, 6.47, 6.61, 6.61, 6.16, 5.7, 5.24, 4.77, 3.7, 4.77, 4.02, 1.2, 0.63, 0.89, 2.12, 3.04, 2.6, 1.4, 1.66, 2.3, 1.6, 1.0, 0.76, 1.58, 3.74, 5.16, 4.81, 4.83, 7.41, 8.0, 7.01, 6.71, 6.71, 4.43, 3.7, 3.09, 1.86, 0.99, 0.57, 0.57, 1.26, 1.7, 1.7, 1.79, 2.24, 3.13, 3.98, 3.98, 3.98, 3.82, 3.82, 4.6, 4.6, 4.6, 4.77, 4.77, 4.77, 4.88, 4.89, 4.92, 4.92, 4.92, 5.36, 5.36, 5.81, 5.81, 5.79, 6.23, 6.16, 6.16, 6.16, 6.04, 6.04, 6.04, 6.47, 6.47, 6.47, 6.47, 6.47, 6.51, 6.51, 6.51, 6.51, 6.61, 6.61, 6.61, 6.61, 6.61, 6.6, 6.16, 6.16, 6.23, 5.78, 5.78, 5.33, 4.92, 4.47, 6.26, 5.7, 5.09, 5.09, 5.09, 4.66, 5.57, 5.09, 4.6, 4.11, 3.7, 3.39, 1.79, 0.89, 1.34, 2.17, 2.68, 1.86, 1.49, 1.24, 0.76, 0.98, -0.0, 0.0, 0.71, 2.24, 6.21, 7.6, 7.67, 7.97, 8.32, 7.6, 7.45, 9.39, 9.83, 7.58, 6.69, 5.81, 4.66, 2.5, 1.9, 2.0, 2.68, 2.24, 1.79, 1.79, 2.68, 3.58, 4.02, 4.02, 3.97, 3.97, 4.6, 4.6, 4.6, 4.77, 4.77, 4.77, 4.88, 4.89, 4.92, 4.92, 4.92, 5.36, 5.36, 5.81, 5.81, 5.79, 6.23, 6.23, 6.16, 6.16, 6.16, 6.04, 6.04, 6.04, 6.04, 6.47, 6.47, 6.47, 6.6, 6.51, 6.51, 6.51, 6.51, 6.51, 6.61, 6.61, 6.6, 6.6, 6.16, 6.16, 6.16, 5.7, 5.7, 5.24, 4.8, 5.16, 6.21, 5.78, 4.89, 4.44, 4.44, 4.44, 4.3, 4.11, 3.6, 3.2, 3.6, 3.2, 3.07, 1.34, 1.79, 2.24, 2.12, 1.86, 2.12, 1.6, -0.0, -0.0, -0.0, 0.89, 0.95, 0.95, 3.84, 9.2, 11.4, 9.11, 7.69, 7.06, 6.94, 10.16, 12.5, 12.52, 8.05, 7.52, 7.43, 5.61, 4.19, 2.91, 3.07, 2.68, 1.7, 1.6, 2.17, 3.09, 4.02, 4.02, 4.02, 4.02, 4.6, 4.6, 4.6, 4.77, 4.77, 4.77, 4.88, 4.89, 4.92, 4.92, 4.92, 5.36, 5.36, 5.81, 5.81, 5.79, 6.23, 6.23, 6.16, 6.16, 6.16, 6.16, 6.04, 6.04, 6.04, 6.04, 6.04, 6.04, 6.07, 6.14, 6.04, 6.04, 6.47, 6.47, 6.47, 6.47, 6.04, 6.16, 6.16, 6.16, 5.7, 5.7, 5.7, 5.26, 5.57, 6.3, 6.94, 6.68, 5.78, 5.36, 5.36, 5.36, 4.92, 4.47, 4.47, 2.91, 2.91, 2.91, 2.91, 2.63, 1.79, 1.79, 1.86, 2.6, 2.24, 2.24, 1.34, 0.0, 0.89, 2.24, 2.24, 0.6, 0.6, 5.4, 12.14, 12.42, 6.98, 3.07, 4.46, 7.56, 11.54, 12.52, 11.54, 8.67, 9.57, 8.67, 5.61, 4.19, 3.82, 4.43, 2.68, 1.49, 1.86, 2.49, 3.53, 3.98, 4.02, 4.02, 4.6, 4.6, 4.6, 4.77, 4.77, 4.77, 4.88, 4.88, 4.92, 4.92, 4.92, 5.36, 5.36, 5.36, 5.81, 5.78, 5.79, 6.23, 6.23, 6.16, 6.16, 6.16, 6.16, 6.04, 6.04, 6.04, 6.04, 6.04, 6.04, 6.07, 5.7, 5.57, 6.04, 6.04, 6.04, 6.04, 6.04, 5.99, 5.99, 5.57, 5.7, 5.7, 5.7, 5.7, 5.57, 6.04, 6.51, 6.68, 6.68, 6.23, 6.26, 6.26, 6.26, 5.81, 5.36, 5.36, 4.92, 3.53, 3.09, 3.07, 3.13, 2.54, 4.24, 2.17, 2.24, 2.24, 1.79, 1.2, 1.26, 2.54, 2.68, 1.58, 0.89, 3.04, 10.73, 14.23, 10.7, 4.02, 3.07, 6.22, 10.28, 12.05, 12.89, 13.25, 11.05, 10.16, 7.43, 5.14, 4.43, 4.87, 4.02, 2.0, 1.24, 2.15, 3.07, 3.97, 3.53, 3.53, 4.6, 4.6, 4.6, 4.77, 4.77, 4.77, 4.88, 4.88, 4.92, 4.92, 4.92, 4.92, 5.36, 5.36, 5.81, 5.78, 5.78, 6.23, 6.23, 6.23, 6.16, 6.16, 6.16, 6.04, 6.04, 6.04, 6.04, 6.04, 6.47, 6.04, 6.16, 6.14, 6.16, 6.16, 6.16, 6.14, 5.7, 5.7, 5.7, 5.7, 5.7, 5.7, 5.7, 5.7, 5.7, 6.04, 6.16, 6.6, 6.61, 6.68, 6.68, 6.23, 6.23, 6.23, 6.23, 5.78, 5.34, 5.33, 3.98, 4.02, 4.02, 3.58, 3.82, 4.24, 1.7, 1.79, 1.79, 1.34, 1.6, 2.12, 2.24, 2.0, 2.24, 5.82, 10.95, 14.29, 14.57, 12.14, 10.84, 11.53, 12.52, 12.96, 13.41, 13.41, 13.41, 9.37, 7.58, 5.79, 4.47, 5.36, 4.88, 2.8, 1.49, 1.61, 2.53, 3.82, 3.53, 3.53, 4.6, 4.6, 4.6, 4.34, 4.34, 4.88, 4.88, 4.88, 4.92, 4.92, 4.92, 4.92, 5.36, 5.36, 5.36, 5.78, 5.78, 5.79, 6.23, 6.23, 6.16, 6.16, 6.16, 6.16, 6.04, 6.04, 6.04, 6.04, 6.47, 6.47, 6.04, 6.16, 6.16, 6.16, 6.16, 6.16, 6.16, 5.7, 5.7, 5.7, 5.7, 5.7, 5.7, 5.7, 5.7, 6.16, 6.16, 6.16, 6.16, 6.16, 6.16, 6.16, 6.16, 6.23, 5.79, 5.78, 5.78, 5.33, 4.89, 4.02, 3.13, 4.02, 3.82, 3.82, 4.24, 3.82, 1.7, 1.79, 1.79, 1.79, 1.79, 2.24, 4.47, 8.63, 10.95, 12.87, 14.57, 14.92, 15.1, 15.13, 13.84, 12.94, 11.53, 10.63, 10.7, 7.6, 6.71, 4.92, 4.88, 5.64, 4.77, 3.6, 1.2, 1.4, 1.84, 2.23, 2.91, 2.91, 4.6, 4.6, 4.19, 4.34, 4.34, 4.44, 4.88, 4.88, 4.92, 4.92, 4.92, 4.92, 5.36, 5.36, 5.36, 5.36, 5.78, 5.79, 6.23, 6.23, 6.16, 6.16, 6.16, 6.16, 6.16, 6.04, 6.04, 6.04, 6.04, 6.04, 6.04, 6.04, 6.16, 6.16, 6.16, 6.16, 6.16, 6.16, 5.72, 5.7, 5.7, 5.7, 5.78, 5.78, 5.78, 6.16, 6.16, 6.16, 6.16, 6.16, 6.16, 6.16, 6.16, 5.7, 5.7, 5.7, 5.34, 5.33, 4.89, 3.98, 3.58, 2.68, 4.02, 2.24, 2.24, 4.77, 2.12, 2.24, 1.79, 1.79, 1.79, 1.79, 4.92, 9.7, 11.18, 9.81, 10.73, 12.3, 13.96, 14.93, 14.23, 11.18, 8.05, 6.22, 5.78, 5.77, 4.87, 4.3, 4.11, 5.44, 4.77, 3.2, 1.9, 1.2, 1.16, 1.61, 2.4, 2.4, 4.19, 4.19, 4.34, 4.34, 4.34, 4.44, 4.44, 4.88, 4.92, 4.92, 4.92, 4.92, 4.92, 5.36, 5.36, 5.36, 5.78, 5.78, 5.79, 6.23, 6.23, 6.16, 6.16, 6.16, 6.16, 6.04, 6.04, 6.04, 6.04, 6.04, 6.04, 6.04, 6.04, 6.04, 6.16, 6.16, 6.16, 6.16, 6.16, 5.72, 5.7, 5.7, 5.34, 5.81, 5.34, 6.16, 6.16, 6.04, 6.04, 6.04, 6.04, 5.99, 5.99, 5.7, 5.7, 5.24, 5.24, 4.8, 4.44, 3.98, 3.53, 3.07, 4.02, 2.24, 2.24, 4.92, 2.24, 2.24, 2.24, 1.79, 1.7, 1.79, 2.6, 8.72, 11.09, 9.26, 6.21, 7.89, 11.52, 13.39, 12.96, 10.7, 8.46, 5.81, 4.02, 3.98, 3.97, 3.6, 4.0, 4.11, 4.43, 3.58, 2.4, 1.49, 1.2, 1.2, 1.24, 1.79, 4.19, 4.19, 4.34, 4.34, 4.34, 4.44, 4.44, 4.47, 4.92, 4.92, 4.92, 4.92, 4.92, 4.92, 5.36, 5.36, 5.34, 5.78, 5.78, 6.23, 6.23, 6.16, 6.16, 6.16, 6.16, 6.16, 6.04, 6.04, 6.04, 6.04, 6.04, 6.04, 6.04, 6.04, 6.04, 6.16, 6.16, 6.16, 6.16, 5.7, 5.7, 5.7, 5.24, 5.31, 5.36, 6.23, 6.04, 5.99, 5.99, 5.99, 5.99, 5.57, 5.57, 5.57, 5.09, 5.09, 4.8, 4.77, 4.3, 3.87, 3.39, 3.07, 3.58, 1.79, 3.58, 4.47, 4.47, 2.24, 2.24, 2.12, 1.79, 1.34, 1.26, 5.82, 10.28, 10.87, 6.79, 6.07, 8.25, 9.89, 9.28, 8.49, 8.49, 7.6, 6.26, 4.92, 4.02, 3.97, 3.87, 4.43, 4.02, 3.98, 3.58, 2.6, 1.79, 1.0, 0.59, 1.24, 4.34, 4.34, 4.34, 4.34, 4.34, 4.44, 4.44, 4.47, 4.92, 4.92, 4.92, 4.92, 4.92, 4.92, 5.36, 5.33, 5.34, 5.78, 5.78, 5.79, 6.23, 6.16, 6.16, 6.16, 6.16, 6.16, 6.16, 6.04, 6.04, 6.04, 6.04, 6.04, 6.04, 6.04, 6.04, 6.16, 6.16, 6.16, 5.7, 5.7, 5.7, 5.7, 5.24, 4.8, 5.31, 6.23, 6.04, 5.51, 5.51, 5.51, 5.51, 5.51, 5.09, 5.09, 5.09, 4.6, 4.6, 4.3, 3.87, 3.82, 3.39, 2.91, 2.6, 4.02, 4.02, 4.34, 2.12, 2.17, 2.54, 2.24, 1.79, 1.2, 0.89, 2.24, 7.37, 9.62, 9.27, 7.03, 5.77, 4.87, 3.97, 4.92, 7.6, 8.01, 7.57, 7.12, 6.67, 5.81, 4.92, 6.26, 4.43, 4.43, 4.43, 4.85, 3.49, 1.94, 0.61, 0.59, 4.34, 4.34, 4.34, 4.34, 4.34, 4.44, 4.44, 4.47, 4.92, 4.92, 4.92, 4.92, 4.92, 4.92, 4.92, 5.33, 5.34, 5.34, 5.78, 5.78, 6.23, 6.16, 6.16, 6.16, 6.16, 6.16, 6.16, 6.16, 6.16, 6.04, 6.04, 6.04, 6.04, 6.04, 6.04, 6.04, 6.16, 6.14, 5.7, 5.7, 5.7, 5.7, 5.09, 5.09, 5.57, 6.07, 5.7, 5.09, 4.6, 4.6, 4.6, 4.6, 4.6, 4.6, 4.6, 4.6, 4.11, 3.87, 3.39, 3.39, 2.91, 2.49, 3.82, 4.02, 4.47, 4.47, 2.6, 5.2, 2.24, 1.79, 2.12, 1.2, 1.2, 0.8, 1.79, 5.84, 8.65, 8.94, 8.63, 6.94, 5.44, 5.94, 7.76, 9.62, 10.05, 8.38, 6.67, 5.81, 6.71, 7.15, 5.81, 4.47, 4.43, 5.43, 4.65, 3.0, 1.52, 1.52, 4.34, 4.34, 4.34, 4.34, 4.44, 4.44, 4.44, 4.47, 4.47, 4.92, 4.92, 4.92, 4.92, 4.92, 4.89, 5.33, 5.33, 5.34, 5.78, 5.78, 5.78, 6.16, 6.16, 6.16, 6.16, 6.16, 6.16, 6.16, 6.16, 6.16, 6.16, 6.16, 6.16, 5.99, 5.99, 5.99, 5.99, 5.99, 5.7, 5.7, 5.57, 5.57, 5.51, 5.57, 5.81, 6.47, 6.16, 5.26, 5.24, 4.8, 4.8, 4.8, 4.77, 4.77, 4.34, 4.34, 3.87, 3.87, 3.39, 3.39, 3.32, 2.91, 2.49, 4.02, 4.47, 4.47, 4.47, 4.47, 1.7, 1.86, 1.26, 1.34, 1.26, 0.85, 0.57, 2.24, 7.21, 10.68, 11.34, 10.87, 10.35, 10.65, 11.99, 12.72, 12.49, 10.16, 5.81, 5.36, 5.81, 6.71, 5.36, 4.02, 3.07, 2.53, 3.11, 1.45, 1.45, 1.45, 4.34, 4.34, 4.34, 4.34, 4.44, 4.44, 4.44, 4.47, 4.47, 4.92, 4.92, 4.92, 4.92, 4.92, 4.89, 5.33, 5.33, 5.34, 5.34, 5.7, 5.7, 5.7, 6.16, 6.16, 6.16, 6.16, 6.16, 6.16, 6.16, 6.16, 6.16, 6.14, 6.14, 6.14, 5.99, 5.99, 5.99, 5.57, 5.57, 5.57, 5.57, 5.57, 5.57, 5.57, 5.99, 6.04, 6.16, 6.16, 5.7, 5.7, 5.26, 5.33, 5.33, 4.89, 4.8, 4.77, 4.34, 3.87, 3.87, 3.39, 3.39, 3.39, 2.91, 4.24, 4.47, 4.47, 4.77, 4.24, 1.58, 1.49, 1.6, 1.34, 1.58, 0.76, 0.73, 1.6, 5.31, 9.72, 12.37, 12.39, 12.51, 13.54, 14.53, 14.62, 13.21, 10.84, 7.57, 5.36, 5.32, 5.77, 3.97, 2.24, 1.9, 3.35, 2.29, 0.74, 0.74, 0.74, 4.34, 4.34, 4.34, 4.34, 4.44, 4.44, 4.47, 4.47, 4.47, 4.92, 4.92, 4.92, 4.92, 4.89, 4.89, 5.33, 5.33, 5.33, 5.34, 5.7, 5.7, 5.7, 5.7, 6.16, 6.16, 6.16, 6.16, 6.16, 6.16, 6.14, 6.14, 6.14, 5.7, 5.7, 5.57, 5.57, 5.57, 5.57, 5.57, 5.57, 5.57, 5.57, 5.57, 5.57, 5.57, 5.99, 6.04, 6.16, 6.16, 6.14, 5.7, 5.7, 5.7, 5.7, 5.24, 4.8, 4.77, 4.34, 4.3, 3.87, 3.87, 3.39, 3.39, 3.53, 4.47, 4.47, 4.77, 2.54, 2.21, 2.23, 1.34, 1.6, 1.74, 1.8, 2.3, 2.15, 4.15, 8.05, 10.93, 12.29, 13.1, 14.82, 16.53, 15.54, 13.21, 12.01, 10.98, 8.01, 5.81, 3.98, 4.47, 1.0, 2.07, 2.98, 1.35, -0.0, -0.0, -0.0, 4.34, 4.34, 4.34, 4.44, 4.44, 4.44, 4.47, 4.47, 4.47, 4.92, 4.92, 4.92, 4.92, 4.89, 4.89, 5.33, 5.33, 5.33, 5.34, 5.7, 5.7, 5.7, 5.7, 6.14, 6.14, 6.16, 6.16, 6.16, 6.14, 6.14, 6.14, 5.7, 5.7, 5.7, 5.57, 5.57, 5.57, 5.57, 5.57, 5.57, 5.57, 5.57, 5.57, 5.57, 5.57, 5.99, 5.99, 5.99, 5.99, 5.99, 5.99, 5.7, 5.7, 5.7, 5.7, 5.24, 5.24, 4.77, 4.34, 4.34, 4.3, 3.87, 3.39, 3.39, 3.09, 4.47, 4.92, 2.24, 2.24, 1.79, 2.12, 2.23, 2.23, 2.6, 2.8, 3.13, 4.47, 7.15, 9.36, 9.6, 11.44, 14.64, 16.85, 15.54, 14.35, 12.72, 11.75, 10.19, 6.66, 5.81, 1.4, 1.61, 2.51, 2.3, 0.72, -0.0, -0.0, -0.0, 4.34, 4.34, 4.34, 4.44, 4.44, 4.44, 4.47, 4.47, 4.47, 4.92, 4.92, 4.92, 4.89, 4.89, 4.89, 4.89, 5.33, 5.33, 5.24, 5.26, 5.7, 5.7, 5.7, 5.7, 5.7, 6.14, 6.14, 6.14, 6.14, 6.14, 5.7, 5.7, 5.7, 5.57, 5.57, 5.57, 5.57, 5.57, 5.57, 5.57, 5.57, 5.57, 5.57, 5.57, 5.57, 5.57, 5.99, 5.99, 5.99, 5.99, 5.57, 5.57, 5.57, 5.57, 5.7, 5.24, 5.24, 4.77, 4.77, 4.34, 4.3, 3.87, 3.82, 3.39, 3.09, 4.47, 4.47, 4.92, 4.92, 2.12, 2.23, 2.23, 2.54, 3.04, 3.13, 4.02, 4.92, 7.15, 7.89, 6.94, 9.03, 13.23, 16.71, 15.87, 14.93, 12.92, 10.8, 7.76, 3.82, -0.0, 0.6, 1.9, 2.79, 1.27, -0.0, -0.0, -0.0, -0.0, 4.34, 4.34, 4.34, 4.44, 4.44, 4.47, 4.47, 4.47, 4.92, 4.92, 4.92, 4.89, 4.89, 4.89, 4.89, 4.89, 5.33, 5.33, 5.24, 5.26, 5.7, 5.7, 5.7, 5.7, 5.7, 5.7, 5.7, 5.7, 5.7, 5.7, 5.7, 5.7, 5.57, 5.57, 5.57, 5.57, 5.57, 5.57, 5.57, 5.57, 5.57, 5.57, 5.57, 5.57, 5.57, 5.57, 5.57, 5.57, 5.57, 5.57, 5.57, 5.57, 5.57, 5.57, 5.51, 5.09, 5.09, 4.6, 4.6, 4.34, 4.3, 3.87, 3.82, 3.39, 3.07, 4.47, 4.47, 4.92, 4.92, 4.02, 3.58, 3.04, 3.47, 3.95, 4.02, 4.02, 4.47, 5.81, 6.51, 6.28, 7.47, 10.95, 13.99, 14.82, 14.75, 12.79, 8.76, 4.0, 1.49, 0.63, 0.89, 1.7, 1.16, -0.0, -0.69, -0.0, -0.0, -0.0, 4.34, 4.34, 4.44, 4.44, 4.44, 4.47, 4.47, 4.47, 4.92, 4.92, 4.92, 4.89, 4.89, 4.89, 4.89, 4.89, 5.33, 5.24, 5.24, 5.24, 5.26, 5.7, 5.7, 5.7, 5.7, 5.7, 5.7, 5.7, 5.7, 5.7, 5.7, 5.7, 5.57, 5.57, 5.57, 5.57, 5.57, 5.57, 5.57, 5.57, 5.57, 5.57, 5.57, 5.57, 5.57, 5.57, 5.57, 5.57, 5.57, 5.57, 5.57, 5.57, 5.57, 5.57, 5.51, 5.09, 5.09, 4.6, 4.6, 4.6, 4.34, 4.3, 3.87, 3.39, 2.91, 3.47, 3.58, 4.02, 4.38, 4.38, 3.58, 3.58, 3.47, 3.95, 3.95, 3.51, 2.68, 4.02, 4.85, 5.34, 6.79, 8.4, 9.9, 12.16, 13.54, 13.07, 2.5, 1.2, 1.24, 1.79, 1.2, -0.0, -0.57, -0.78, -0.64, -0.69, -0.69, -0.69, 4.34, 4.34, 4.44, 4.44, 4.44, 4.44, 4.47, 4.92, 4.92, 4.92, 4.92, 4.89, 4.89, 4.89, 4.89, 4.89, 4.8, 5.24, 5.24, 5.24, 5.24, 5.7, 5.7, 5.7, 5.7, 5.7, 5.7, 5.7, 5.7, 5.7, 5.7, 5.57, 5.57, 5.57, 5.57, 5.57, 5.57, 5.57, 5.57, 5.57, 5.57, 5.57, 5.57, 5.57, 5.57, 5.57, 5.57, 5.57, 5.57, 5.57, 5.57, 5.57, 5.57, 5.51, 5.51, 5.09, 5.09, 5.02, 4.6, 4.6, 4.19, 4.3, 3.87, 3.39, 3.32, 3.47, 3.47, 3.58, 3.47, 3.58, 3.58, 4.02, 3.95, 4.15, 3.74, 3.47, 3.58, 2.68, 3.51, 4.66, 6.07, 6.7, 7.03, 10.15, 13.57, 9.74, 2.8, 0.54, 1.2, 0.6, -0.0, -1.36, -1.32, -1.45, -0.69, -0.74, -0.74, -0.74, 4.34, 4.34, 4.44, 4.44, 4.44, 4.44, 4.47, 4.92, 4.92, 4.92, 4.92, 4.89, 4.89, 4.89, 4.89, 4.89, 4.8, 5.24, 5.24, 5.24, 5.24, 5.24, 5.7, 5.7, 5.7, 5.7, 5.57, 5.57, 5.57, 5.57, 5.57, 5.57, 5.57, 5.57, 5.57, 5.57, 5.57, 5.57, 5.57, 5.57, 5.57, 5.57, 5.57, 5.57, 5.57, 5.57, 5.57, 5.57, 5.57, 5.57, 5.57, 5.57, 5.57, 5.51, 5.09, 5.09, 5.09, 5.02, 4.6, 4.6, 4.19, 4.11, 3.7, 3.6, 2.91, 2.0, 3.04, 2.97, 2.68, 2.24, 1.79, 2.68, 3.58, 3.6, 4.15, 3.2, 3.04, 2.68, 3.58, 3.95, 5.16, 6.07, 6.51, 9.26, 15.2, 11.18, 3.51, 1.26, 0.0, -2.53, -3.33, -1.36, -1.3, -1.52, -1.45, -1.45, -1.45, -1.45, 4.34, 4.34, 4.44, 4.44, 4.44, 4.47, 4.92, 4.92, 4.92, 4.92, 4.92, 4.89, 4.89, 4.89, 4.89, 4.8, 4.8, 4.8, 5.24, 5.24, 5.24, 5.24, 5.7, 5.7, 5.57, 5.57, 5.57, 5.57, 5.57, 5.57, 5.57, 5.57, 5.57, 5.57, 5.57, 5.57, 5.57, 5.57, 5.57, 5.57, 5.57, 5.57, 5.57, 5.57, 5.57, 5.57, 5.57, 5.57, 5.57, 5.57, 5.57, 5.57, 5.51, 5.51, 5.09, 5.09, 5.09, 5.02, 4.6, 4.6, 4.19, 4.11, 4.11, 3.7, 2.91, 2.0, 2.54, 2.54, 1.6, 1.34, 0.89, 1.34, 2.24, 2.54, 3.22, 3.2, 3.13, 3.13, 3.58, 4.02, 4.47, 5.31, 6.21, 14.3, 16.08, 12.5, 5.36, 2.68, 0.0, -5.36, -5.35, -2.2, -1.23, -2.29, -2.26, -1.4, -1.4, -1.4, 4.44, 4.44, 4.44, 4.44, 4.44, 4.47, 4.92, 4.92, 4.92, 4.92, 4.92, 4.89, 4.89, 4.89, 4.89, 4.8, 4.8, 4.8, 5.24, 5.24, 5.24, 5.24, 5.24, 5.57, 5.57, 5.57, 5.57, 5.57, 5.57, 5.57, 5.57, 5.57, 5.57, 5.57, 5.57, 5.57, 5.57, 5.57, 5.57, 5.57, 5.57, 5.57, 5.57, 5.57, 5.57, 5.57, 5.57, 5.57, 5.57, 5.57, 5.57, 5.31, 5.31, 5.31, 4.9, 4.9, 4.9, 5.02, 4.6, 4.6, 4.19, 4.11, 4.11, 3.7, 2.91, 2.4, 2.4, 2.0, 1.7, 1.6, 1.6, 1.9, 2.12, 1.79, 1.2, 1.79, 2.24, 2.24, 2.68, 3.13, 2.68, 4.02, 9.39, 14.28, 16.54, 12.07, 5.77, 2.4, -1.49, -6.98, -6.01, -3.38, -2.0, -3.0, -3.09, -2.18, -2.18, -2.18, 4.44, 4.44, 4.44, 4.44, 4.44, 4.92, 4.92, 4.92, 4.92, 4.92, 4.92, 4.89, 4.89, 4.89, 4.89, 4.8, 4.8, 4.8, 4.8, 5.24, 5.24, 5.24, 5.24, 5.09, 5.51, 5.57, 5.57, 5.57, 5.57, 5.57, 5.57, 5.57, 5.57, 5.57, 5.57, 5.57, 5.57, 5.57, 5.57, 5.57, 5.57, 5.57, 5.57, 5.57, 5.57, 5.57, 5.57, 5.57, 5.57, 5.57, 5.4, 5.31, 5.31, 5.31, 4.9, 4.9, 4.9, 4.8, 4.4, 4.4, 4.52, 4.11, 4.11, 4.11, 3.6, 2.91, 2.4, 2.0, 1.6, 1.7, 2.12, 2.97, 2.97, 2.68, 2.54, 2.0, 0.95, 0.89, 1.79, 2.24, 1.79, 2.24, 8.01, 12.3, 15.34, 11.15, 3.32, 0.0, -4.12, -7.95, -6.68, -4.67, -4.03, -3.91, -3.27, -2.12, -2.12, -2.12, 4.44, 4.44, 4.44, 4.88, 4.88, 4.92, 4.92, 4.92, 4.92, 4.92, 4.92, 4.89, 4.89, 4.89, 4.89, 4.8, 4.8, 4.8, 4.8, 5.24, 5.24, 5.24, 5.09, 5.09, 5.09, 5.09, 5.51, 5.57, 5.57, 5.57, 5.57, 5.57, 5.57, 5.57, 5.57, 5.57, 5.57, 5.57, 5.57, 5.57, 5.57, 5.57, 5.57, 5.57, 5.57, 5.57, 5.57, 5.57, 5.57, 5.57, 5.4, 5.31, 5.31, 5.31, 4.9, 4.9, 4.9, 4.8, 4.4, 4.4, 4.27, 3.88, 3.88, 4.11, 3.6, 3.2, 2.68, 2.4, 2.4, 1.7, 1.7, 2.12, 3.13, 3.13, 3.04, 3.13, 2.24, 0.63, 1.2, 1.6, 1.7, 2.68, 5.81, 9.72, 13.96, 13.21, 4.3, -0.89, -5.72, -7.33, -7.31, -6.51, -5.46, -4.71, -3.69, -3.09, -3.09, -3.09, 4.88, 4.88, 4.88, 4.88, 4.88, 4.92, 4.92, 4.92, 4.92, 4.92, 4.92, 4.89, 4.89, 4.89, 4.89, 4.8, 4.8, 4.8, 4.8, 4.8, 5.24, 5.09, 5.09, 5.09, 5.09, 5.09, 5.09, 5.09, 5.09, 5.51, 5.51, 5.51, 5.51, 5.51, 5.51, 5.51, 5.09, 5.09, 5.57, 5.57, 5.57, 5.57, 5.57, 5.57, 5.57, 5.57, 5.57, 5.57, 5.57, 5.57, 5.31, 5.31, 5.31, 5.31, 4.9, 4.9, 4.9, 4.8, 4.4, 4.4, 4.27, 3.88, 3.88, 3.88, 3.88, 3.35, 3.6, 3.07, 3.07, 1.26, 1.6, 2.12, 2.12, 2.24, 1.79, 2.68, 2.68, 1.2, 1.26, 1.6, 1.7, 2.24, 4.02, 8.49, 12.94, 15.47, 11.18, 2.68, -1.88, -6.01, -7.61, -7.55, -5.46, -4.71, -3.91, -2.99, -2.99, -2.99, 4.88, 4.88, 4.88, 4.88, 4.88, 4.92, 4.92, 4.92, 4.92, 4.92, 4.92, 4.89, 4.89, 4.89, 4.89, 4.77, 4.77, 4.77, 4.8, 4.8, 5.09, 5.09, 5.09, 5.09, 5.09, 5.09, 5.09, 5.09, 5.09, 5.09, 5.09, 5.09, 5.09, 5.09, 5.09, 5.09, 5.09, 5.09, 5.09, 5.09, 5.57, 5.57, 5.57, 5.57, 5.57, 5.57, 5.57, 5.57, 5.57, 5.57, 5.31, 5.31, 5.31, 5.31, 4.9, 4.9, 4.9, 4.8, 4.8, 4.4, 4.27, 4.27, 3.88, 3.88, 3.88, 3.88, 3.72, 3.35, 3.14, 1.9, 1.58, 2.23, 2.0, 1.34, 1.34, 2.24, 2.24, 1.79, 2.0, 1.79, 1.79, 2.24, 4.41, 7.56, 12.05, 15.18, 14.73, 11.15, 3.82, -0.65, -5.35, -6.51, -5.52, -4.71, -4.12, -3.09, -3.09, -3.09, 4.88, 4.88, 4.88, 4.88, 4.88, 4.92, 4.92, 4.92, 4.92, 4.92, 4.92, 4.89, 4.89, 4.89, 4.89, 4.77, 4.77, 4.77, 4.77, 4.8, 4.66, 5.09, 5.09, 5.09, 5.09, 5.09, 5.09, 5.09, 5.09, 5.09, 5.09, 5.09, 5.09, 5.09, 5.09, 5.09, 5.09, 5.09, 5.09, 5.09, 5.51, 5.57, 5.57, 5.57, 5.57, 5.57, 5.57, 5.57, 5.57, 5.57, 5.31, 5.31, 5.31, 5.31, 4.9, 4.9, 4.9, 4.8, 4.8, 4.4, 4.27, 4.27, 3.88, 3.88, 3.88, 3.88, 3.88, 3.43, 3.43, 3.43, 3.16, 2.23, 2.0, 1.6, 1.34, 1.79, 2.24, 1.79, 2.68, 2.24, 1.79, 2.68, 4.41, 7.45, 11.52, 14.73, 14.75, 12.88, 11.53, 6.58, -0.0, -4.22, -5.04, -4.5, -4.0, -3.09, -3.09, -3.09, 4.88, 4.88, 4.88, 4.88, 4.89, 4.92, 4.92, 4.92, 4.92, 4.92, 4.92, 4.89, 4.89, 4.89, 4.88, 4.77, 4.77, 4.77, 4.77, 4.77, 4.6, 4.66, 5.09, 5.09, 5.09, 5.09, 5.09, 5.09, 5.09, 5.09, 5.09, 5.09, 5.09, 5.09, 5.09, 5.09, 5.09, 5.09, 5.09, 5.09, 5.09, 5.51, 5.57, 5.57, 5.57, 5.57, 5.57, 5.57, 5.57, 5.57, 5.31, 5.31, 5.31, 5.31, 4.9, 4.9, 4.9, 4.8, 4.8, 4.4, 4.27, 4.27, 4.27, 3.64, 3.64, 3.64, 3.64, 3.43, 3.43, 3.43, 3.43, 2.53, 2.12, 3.82, 1.34, 1.34, 2.24, 1.79, 2.68, 1.34, 1.79, 3.04, 4.66, 6.79, 10.49, 13.84, 14.3, 12.87, 11.89, 10.98, 5.6, -0.0, -3.7, -4.2, -3.51, -2.82, -2.82, -2.82, 4.88, 4.88, 4.88, 4.89, 4.92, 4.92, 4.92, 4.92, 4.92, 4.92, 4.92, 4.89, 4.89, 4.89, 4.88, 4.77, 4.77, 4.77, 4.77, 4.6, 4.6, 4.6, 4.66, 5.09, 5.09, 5.09, 5.09, 5.09, 5.09, 5.09, 5.09, 5.09, 5.09, 5.09, 5.09, 5.09, 5.09, 5.09, 5.09, 5.09, 5.09, 5.09, 5.51, 5.57, 5.57, 5.57, 5.57, 5.57, 5.57, 5.57, 5.31, 5.31, 5.31, 5.31, 5.31, 4.9, 4.9, 4.8, 4.8, 4.8, 4.4, 4.0, 4.0, 4.0, 4.0, 3.64, 3.64, 3.64, 3.43, 3.43, 3.43, 3.72, 3.6, 4.24, 1.34, 1.34, 1.79, 2.24, 2.24, 1.34, 1.6, 2.8, 3.83, 6.7, 9.58, 12.49, 13.39, 12.77, 12.14, 11.45, 8.95, 2.0, -1.45, -3.33, -2.82, -2.9, -2.9, -2.9, 4.88, 4.88, 4.88, 4.89, 4.92, 4.92, 4.92, 4.92, 4.92, 4.92, 4.92, 4.89, 4.89, 4.89, 4.88, 4.77, 4.77, 4.77, 4.77, 4.6, 4.6, 4.6, 4.66, 5.09, 5.09, 5.09, 5.09, 5.09, 5.09, 5.09, 5.09, 5.09, 5.09, 5.09, 5.09, 5.09, 5.09, 5.09, 5.09, 5.09, 5.09, 5.09, 5.51, 5.57, 5.57, 5.57, 5.57, 5.57, 5.57, 5.57, 5.31, 5.31, 5.31, 5.31, 5.31, 4.9, 4.9, 4.8, 4.8, 4.8, 4.4, 4.0, 4.0, 4.0, 4.0, 3.64, 3.64, 3.64, 3.43, 3.43, 3.43, 3.72, 3.6, 4.24, 1.34, 1.34, 1.79, 2.24, 2.24, 1.34, 1.6, 2.23, 3.74, 5.86, 8.8, 11.15, 12.94, 13.21, 13.05, 12.14, 10.4, 6.06, -0.0, -1.52, -2.2, -2.35, -2.35, -2.35]}, {"header": {"dx": 0.06612293990616946, "dy": 0.0552356325346848, "nx": 98, "ny": 59, "la1": 35.046912555036876, "la2": 31.78801023549047, "lo1": -121.43107172385933, "lo2": -114.95102361305473, "refTime": "2026042003", "parameterCategory": 1, "parameterNumber": 3}, "data": [1.13, 0.59, 0.51, 0.0, 0.0, 0.0, 0.0, 0.0, 0.0, 0.0, 0.0, 0.0, 0.0, 0.0, 0.0, 0.0, 0.0, 0.0, 0.0, 0.0, 0.85, 0.99, 1.49, 1.7, 1.6, 2.35, 3.27, 4.0, 3.7, 3.88, 4.6, 3.64, 0.65, 0.0, 0.0, 0.0, 0.0, 1.58, 5.36, 8.82, 8.71, 7.89, 7.08, 4.92, 3.74, 3.49, 3.07, 2.98, 3.22, 3.11, 3.79, 3.9, 3.0, 3.2, 2.35, 1.52, 1.52, 0.78, 0.78, 0.72, 0.72, 0.7, 0.81, 2.3, 3.48, 4.43, 4.36, 3.55, 3.0, 2.82, 2.44, 2.31, 1.65, 0.72, 0.72, 0.74, 0.67, 0.0, 0.67, 2.48, 4.3, 4.92, 4.02, 3.53, 3.32, 3.45, 3.45, 3.07, 3.39, 3.58, 3.07, 2.91, 2.5, 2.21, 1.84, 1.13, 1.27, 1.8, 1.13, 0.59, 0.59, 0.0, 0.0, 0.0, 0.0, 0.0, 0.0, 0.0, 0.0, 0.0, 0.0, 0.0, 0.0, 0.0, 0.0, 0.0, 0.0, 0.0, 0.0, 0.99, 1.8, 3.49, 3.07, 2.98, 3.11, 2.51, 2.35, 4.43, 6.98, 5.31, 2.5, 1.9, 2.17, 2.24, 2.4, 3.32, 6.71, 9.58, 10.45, 9.33, 6.71, 4.24, 2.86, 2.3, 2.2, 2.98, 3.22, 3.64, 3.9, 3.79, 3.27, 2.75, 1.93, 1.45, 1.52, 0.78, 0.72, 0.82, 0.76, 0.81, 2.07, 3.79, 4.12, 3.72, 2.88, 1.47, 1.41, 1.45, 1.49, 0.79, 0.72, 0.0, 0.0, 0.0, 0.0, 0.0, 0.67, 2.48, 4.3, 4.92, 4.02, 3.53, 3.32, 3.45, 3.45, 3.07, 3.39, 3.58, 3.07, 2.91, 2.5, 2.21, 1.84, 1.13, 1.27, 1.8, 1.13, 0.59, 0.59, 0.59, 0.0, 0.0, 0.0, 0.0, 0.0, 0.0, 0.0, 0.0, 0.0, 0.0, 0.0, 0.0, 0.0, 0.0, 0.0, 0.0, 0.0, 0.0, 1.49, 3.58, 6.32, 5.77, 4.11, 2.68, 2.8, 7.15, 9.26, 6.94, 3.16, 3.45, 4.43, 4.92, 5.32, 6.55, 8.49, 9.58, 7.76, 4.47, 3.32, 2.15, 1.33, 1.66, 2.3, 2.53, 2.98, 2.88, 3.11, 3.09, 2.99, 2.44, 1.32, 1.52, 0.72, 0.76, 0.72, 0.7, 0.73, 1.49, 3.48, 4.81, 3.79, 2.2, 1.55, 1.47, 1.47, 0.72, 1.55, 0.79, 0.0, 0.0, 0.0, 0.0, 0.0, 0.0, 0.0, 1.8, 3.98, 4.92, 4.92, 4.02, 3.97, 4.3, 4.0, 3.74, 3.39, 3.13, 3.07, 2.91, 2.5, 2.21, 1.61, 1.84, 1.84, 1.8, 1.27, 0.59, 0.59, 0.59, 0.0, 0.0, 0.0, 0.0, 0.0, -0.42, -0.6, -0.6, 0.0, 0.0, 0.0, 0.0, 0.0, 0.0, -0.65, -0.65, 0.0, 0.0, 0.0, 1.24, 3.16, 5.59, 5.16, 4.47, 6.98, 9.26, 7.89, 5.43, 4.43, 4.54, 5.73, 5.81, 6.71, 7.54, 7.6, 7.15, 4.47, 2.6, 1.24, 0.0, 0.0, 0.7, 0.7, 1.66, 2.4, 2.29, 2.2, 2.18, 1.58, 1.58, 1.52, 1.52, 0.76, 0.7, 0.7, 0.81, 1.49, 2.84, 4.46, 3.79, 4.01, 3.22, 2.2, 2.66, 3.32, 3.47, 3.69, 3.09, 1.63, 0.0, 0.0, -0.59, -2.2, -1.23, 0.0, 1.61, 3.58, 4.47, 4.47, 4.47, 4.02, 4.41, 4.41, 3.82, 3.53, 3.13, 3.07, 2.91, 2.5, 1.88, 1.9, 2.21, 2.23, 2.51, 1.11, 1.11, 0.51, 0.59, 0.0, 0.0, 0.0, 0.0, 0.0, -0.57, -0.6, -0.6, -1.0, -0.57, -0.54, -0.65, -0.61, -0.61, -0.61, -1.2, -0.71, 0.0, 0.71, 2.23, 2.8, 4.92, 7.98, 9.16, 9.33, 8.49, 6.26, 3.83, 2.2, 2.29, 2.86, 3.13, 3.13, 3.51, 3.97, 3.58, 3.51, 3.2, 1.9, 0.54, 0.0, 0.0, 0.0, 0.61, 1.41, 1.41, 1.41, 1.55, 1.55, 1.55, 1.63, 0.78, 0.76, 0.0, 0.73, 0.7, 2.15, 3.49, 4.09, 4.12, 5.43, 6.39, 6.06, 5.43, 5.37, 6.32, 6.14, 5.28, 4.07, 2.47, 0.7, -1.13, -2.51, 0.0, 2.79, 2.53, 3.13, 4.02, 4.47, 4.47, 4.47, 4.43, 3.98, 3.97, 3.53, 3.13, 3.13, 3.53, 3.07, 2.15, 2.91, 3.07, 2.84, 2.23, 1.11, 1.11, 0.57, 0.51, 0.0, 0.0, 0.0, 0.0, 0.0, -0.54, -0.6, -0.6, -1.0, -1.0, -0.65, -1.2, -1.4, -1.4, -1.4, -1.88, -1.9, -0.99, 1.26, 3.58, 5.81, 6.79, 7.4, 7.08, 5.81, 5.73, 4.87, 3.2, 2.29, 1.45, 1.16, 1.86, 2.24, 2.6, 2.4, 2.68, 3.13, 4.38, 5.43, 5.09, 2.07, 0.65, 0.0, 0.0, 0.0, 0.76, 1.52, 1.63, 0.78, 0.78, 0.78, 0.0, 0.0, 0.0, 0.0, 1.33, 2.86, 2.86, 4.4, 6.0, 7.6, 9.3, 9.3, 8.03, 6.39, 6.01, 4.6, 4.0, 3.8, 3.27, 2.0, 0.0, 0.0, 2.17, 3.98, 3.6, 3.82, 3.53, 4.02, 4.47, 4.47, 4.47, 4.02, 3.58, 3.13, 3.13, 3.58, 3.53, 2.91, 3.07, 3.53, 3.6, 2.84, 1.8, 1.11, 1.11, 0.57, 0.57, 0.51, 0.0, 0.0, 0.0, 0.0, -0.65, -0.71, -0.99, -0.85, -0.71, -2.2, -1.49, -1.88, -1.88, -2.15, -2.53, -2.86, -1.58, 0.63, 2.24, 3.04, 2.8, 2.8, 2.68, 2.12, 2.4, 4.02, 5.05, 4.16, 3.0, 1.27, 1.61, 2.17, 2.6, 2.8, 2.6, 2.68, 3.13, 3.47, 4.98, 5.37, 4.29, 3.64, 1.33, 0.0, 1.23, 2.26, 0.82, 0.78, 0.0, 0.0, -0.74, -0.82, 0.0, 0.0, 1.4, 2.21, 2.8, 3.74, 6.28, 7.89, 9.05, 8.6, 6.88, 3.91, 2.4, 0.76, 0.0, 0.0, 0.0, 1.2, 2.68, 3.58, 4.02, 4.92, 4.73, 3.72, 3.07, 3.07, 4.02, 4.47, 4.47, 3.58, 3.58, 3.13, 3.13, 3.13, 2.68, 3.13, 3.58, 3.97, 3.6, 2.51, 1.8, 1.11, 1.11, 0.57, 0.57, 0.57, 0.0, 0.0, 0.0, 0.0, -0.61, -1.2, -1.24, -0.8, -0.54, -1.19, -2.15, -1.88, -2.41, -2.79, -2.3, -2.15, -0.65, 0.57, 0.45, -0.0, -0.0, 0.0, 0.0, 0.0, 2.12, 3.93, 4.54, 3.48, 1.6, 1.16, 0.65, 1.24, 1.79, 2.23, 2.6, 1.86, 1.6, 2.0, 1.49, 2.68, 5.37, 6.32, 7.02, 5.37, 5.44, 2.2, 0.7, 0.0, -1.65, -2.26, -2.35, -1.55, -1.16, 0.0, 0.54, 1.24, 2.8, 3.51, 6.51, 6.94, 6.39, 5.52, 3.11, 0.0, -0.76, -1.58, -1.65, -2.26, -2.07, 0.63, 3.53, 4.47, 5.36, 5.32, 4.93, 4.73, 2.84, 3.07, 3.39, 4.02, 4.02, 3.53, 3.51, 3.07, 3.07, 3.07, 3.13, 3.58, 4.02, 3.82, 3.14, 2.51, 1.8, 1.11, 1.11, 0.57, 0.57, 0.57, 0.0, 0.0, 0.0, -0.59, -0.51, -1.16, -1.88, -1.58, -1.9, -1.4, -1.4, -1.88, -2.15, -2.15, -1.4, -0.85, 0.0, 0.71, 0.89, -0.0, 0.0, -0.63, -0.63, -0.0, 2.15, 2.15, 1.49, 0.71, -0.0, -0.0, -0.0, -0.0, -0.0, 0.63, 0.85, 0.65, 1.49, 1.24, 1.49, 1.74, 2.07, 5.24, 7.64, 8.65, 8.27, 6.44, 1.52, -0.82, -3.11, -4.36, -4.01, -3.07, -2.53, -0.57, 0.71, 4.4, 6.98, 6.51, 7.21, 6.64, 4.83, 3.06, 0.78, -1.49, -3.91, -4.03, -3.4, -3.79, -2.53, 1.34, 3.32, 3.82, 4.47, 4.43, 5.2, 5.46, 3.79, 3.16, 3.45, 3.82, 3.97, 3.53, 3.51, 3.07, 2.63, 3.09, 3.58, 3.58, 3.58, 3.39, 3.14, 2.51, 1.8, 1.23, 1.11, 0.57, 0.57, 0.57, 0.0, 0.0, 0.0, -0.59, -0.59, -1.13, -1.84, -2.86, -3.48, -1.88, -1.88, -2.15, -2.53, -2.53, -1.9, -0.8, 0.0, 0.0, 0.0, 0.0, 0.0, 0.0, 0.0, -0.0, 0.65, -0.0, -0.0, -0.89, -0.63, -0.0, -0.0, 0.0, 0.0, 0.0, 0.0, 0.7, 1.4, 1.4, 1.49, 1.2, 1.4, 2.15, 3.16, 5.37, 6.42, 6.88, 6.44, 3.74, 1.79, 0.0, -1.79, -1.7, -1.2, 0.6, 4.85, 9.26, 10.93, 11.64, 10.01, 8.63, 6.06, 3.79, 2.8, 0.0, -2.86, -3.84, -4.11, -4.43, -2.5, 1.7, 3.53, 3.53, 3.58, 3.53, 3.6, 4.37, 5.38, 5.36, 4.75, 4.66, 4.52, 4.3, 3.39, 2.91, 3.07, 3.09, 3.53, 3.58, 3.58, 3.53, 2.79, 2.51, 1.8, 1.23, 1.23, 1.23, 0.57, 0.57, 0.0, 0.0, 0.0, -0.57, -0.57, -1.27, -1.8, -2.22, -2.86, -2.68, -2.3, -3.35, -2.84, -2.22, -1.6, -0.71, -0.57, -0.71, 0.0, 0.0, 0.0, -0.63, -0.63, -0.45, -0.0, -0.63, -0.63, -0.89, -0.63, -0.4, -0.0, 0.0, 0.0, 0.54, 0.7, 2.4, 2.15, 2.15, 2.6, 1.3, 1.49, 2.8, 3.2, 3.16, 4.81, 8.8, 12.05, 14.11, 13.39, 10.73, 8.05, 5.36, 2.68, 5.36, 9.83, 11.6, 12.3, 11.87, 11.62, 11.62, 11.23, 10.16, 8.91, 5.77, 2.12, 0.6, -0.6, -3.07, -2.4, 1.2, 3.58, 3.13, 3.13, 3.07, 2.8, 3.07, 4.12, 5.37, 5.72, 5.95, 6.13, 5.44, 4.3, 4.52, 3.39, 3.32, 2.91, 3.07, 3.53, 3.32, 3.07, 2.53, 1.84, 1.23, 1.23, 1.23, 0.63, 0.55, 0.0, 0.0, 0.0, -0.57, -0.57, -1.11, -1.76, -2.22, -2.4, -2.82, -2.8, -1.65, -1.04, -0.53, 0.0, 0.0, 0.0, 0.0, 0.0, 0.0, 0.0, 0.0, 0.0, 0.0, -0.8, -0.57, 0.0, 0.0, 0.0, -0.95, -0.63, 0.0, 0.71, 1.2, 1.6, 2.73, 3.07, 3.07, 2.32, 1.3, 2.23, 4.02, 4.38, 5.26, 7.15, 9.83, 11.62, 12.87, 14.11, 15.18, 15.18, 14.11, 10.62, 9.39, 9.83, 10.7, 10.93, 10.95, 10.95, 12.87, 15.2, 15.2, 13.41, 11.6, 10.32, 9.05, 6.35, 0.0, -1.26, 1.34, 3.13, 3.13, 3.07, 2.8, 2.4, 2.4, 3.07, 4.46, 6.06, 6.35, 7.2, 7.06, 5.86, 5.44, 4.27, 3.45, 2.5, 2.91, 2.91, 3.32, 3.07, 2.21, 2.21, 1.23, 1.23, 1.08, 0.55, 0.55, 0.0, 0.0, 0.0, 0.0, -0.55, -1.08, -1.08, -1.73, -2.4, -2.36, -2.14, -1.63, -0.59, 0.0, 0.0, 0.55, 0.0, 0.0, 0.0, 0.0, 0.0, 0.56, 0.57, 0.0, 0.0, -0.61, 0.0, 0.0, 0.0, -0.76, 0.0, 0.65, 1.6, 2.21, 2.15, 1.33, 1.49, 1.49, 0.76, 1.58, 2.68, 3.58, 3.58, 4.02, 5.73, 5.69, 6.35, 6.01, 5.72, 5.94, 5.81, 8.24, 11.64, 9.72, 8.01, 8.36, 9.11, 9.75, 10.62, 12.96, 13.21, 12.79, 12.49, 11.06, 11.62, 11.5, 9.92, 6.06, 1.9, 2.6, 3.07, 3.32, 3.45, 4.09, 3.14, 2.5, 2.53, 2.51, 2.07, 5.43, 6.64, 7.03, 6.64, 6.13, 5.86, 4.73, 3.14, 2.5, 2.5, 3.07, 3.07, 2.68, 2.5, 1.23, 1.08, 1.08, 0.55, 0.55, 0.0, 0.0, 0.0, 0.0, -0.55, -1.08, -1.19, -1.73, -1.7, -2.36, -2.32, -1.76, -1.1, -0.55, 0.0, 0.0, 0.0, 0.0, 0.0, 0.0, 0.0, 0.0, 0.0, 0.0, 0.0, -1.16, -0.73, 0.0, 0.0, 0.0, 0.0, 0.65, 1.88, 1.49, 1.2, 0.61, 0.0, 0.0, 1.41, 4.47, 5.81, 2.68, 2.24, 2.24, 2.54, 2.21, 2.0, 0.87, -0.0, -0.0, -0.0, 0.89, 5.73, 8.8, 6.54, 6.66, 8.43, 9.77, 10.73, 10.28, 9.7, 9.4, 8.38, 8.67, 7.44, 8.65, 8.32, 7.07, 5.69, 4.8, 3.83, 3.45, 4.46, 4.46, 4.43, 3.79, 2.79, 1.84, 1.33, 2.51, 4.46, 6.07, 6.94, 6.64, 5.86, 6.32, 4.12, 3.14, 2.5, 2.53, 2.86, 3.07, 3.07, 1.57, 1.08, 1.08, 0.55, 0.55, 0.0, 0.0, 0.0, 0.0, -0.55, -0.61, -1.19, -1.07, -1.7, -1.7, -1.67, -1.8, -1.65, -1.2, -0.56, 0.0, 0.0, 0.0, 0.0, 0.0, 0.0, 0.0, 0.0, 0.0, 0.0, -1.12, -1.7, -1.23, 0.0, 0.0, 1.19, 2.73, 1.9, 2.4, 0.65, 0.0, 0.0, -1.19, 1.6, 4.92, 5.36, 4.92, 4.02, 3.58, 1.6, 1.26, 0.95, 0.0, 0.0, 0.0, 0.0, -0.0, 0.89, 3.15, 5.37, 4.24, 4.02, 4.92, 4.82, 4.82, 4.92, 4.34, 2.24, 3.35, 4.29, 5.82, 5.46, 5.46, 5.46, 4.75, 4.43, 3.79, 4.81, 4.74, 4.56, 4.83, 3.79, 2.6, 1.27, 0.61, 2.53, 4.0, 6.28, 6.64, 6.94, 6.7, 5.72, 4.12, 3.14, 2.84, 3.14, 3.07, 3.07, 1.57, 1.08, 1.08, 0.55, 0.55, 0.55, 0.0, 0.0, 0.0, 0.0, -0.54, -0.54, -1.07, -1.16, -1.7, -1.67, -1.67, -1.67, -1.12, -0.57, -0.57, 0.0, 0.0, 0.0, 0.0, 0.0, 0.0, 0.0, 0.0, 0.0, -0.56, -1.65, -1.67, -1.23, 0.0, 0.71, 2.21, 3.22, 2.6, 0.0, 0.0, -0.53, 0.0, 3.72, 4.92, 4.92, 4.92, 4.02, 3.58, 2.8, 2.68, 0.0, 0.0, 0.71, 0.71, 0.8, 0.0, -0.6, 0.0, 2.16, 3.48, 5.81, 4.8, 3.79, 1.58, 1.6, 1.2, 1.2, 2.54, 4.34, 3.74, 2.86, 2.79, 2.98, 2.88, 3.72, 4.65, 5.3, 5.59, 5.21, 6.14, 5.64, 4.71, 2.47, 1.49, 1.4, 3.07, 3.82, 5.16, 5.34, 6.07, 4.74, 3.78, 3.16, 3.43, 2.84, 3.14, 3.14, 1.73, 1.08, 1.08, 1.08, 0.55, 0.61, 0.0, 0.0, 0.0, 0.0, -0.54, -0.54, -1.16, -1.16, -1.16, -1.14, -1.67, -1.14, -1.04, -0.57, -0.57, -0.57, -0.57, 0.0, 0.0, 0.0, -0.58, -0.54, -0.54, -0.54, -1.16, -1.73, -1.65, -2.12, 0.0, 0.71, 1.24, 0.85, 0.0, 0.0, -1.19, -0.71, 1.6, 2.0, 4.77, 4.47, 4.47, 4.24, 3.35, 3.16, 2.48, 2.48, 2.73, 2.2, 2.73, 2.73, 1.19, 0.0, 1.14, 3.68, 5.37, 4.74, 3.49, 2.4, 1.3, 0.54, 0.0, 0.89, 2.24, 2.68, 1.49, 0.0, 0.0, 0.66, 1.35, 2.88, 6.01, 6.88, 6.31, 6.05, 6.42, 6.05, 5.04, 4.37, 3.2, 3.07, 3.07, 3.82, 3.74, 4.09, 4.71, 4.71, 3.48, 3.16, 2.73, 2.48, 2.84, 2.84, 1.73, 1.19, 1.19, 1.19, 0.61, 0.61, 0.0, 0.0, 0.0, 0.0, 0.0, -0.54, -0.59, -1.16, -1.16, -1.05, -1.14, -1.14, -1.14, -0.57, -1.12, -1.1, -1.12, -0.57, 0.0, 0.0, -1.09, -1.09, -1.16, -1.69, -1.69, -1.71, -2.26, -2.14, -1.7, -0.79, -0.71, -1.49, -1.4, -1.6, -1.4, 0.0, 0.0, 1.6, 3.82, 4.24, 4.24, 3.72, 4.09, 2.73, 2.4, 2.6, 2.6, 2.6, 3.49, 3.49, 3.49, 3.22, 4.47, 5.37, 5.03, 4.75, 3.45, 2.32, 1.14, 0.0, 0.57, 0.63, 0.0, -0.6, -0.88, -0.78, -0.78, 0.0, 0.76, 2.3, 4.65, 5.52, 5.3, 5.18, 4.83, 4.0, 3.7, 2.66, 2.98, 4.46, 4.0, 4.24, 3.07, 3.14, 3.79, 5.06, 3.78, 2.73, 2.0, 2.0, 2.73, 2.73, 1.73, 1.19, 1.19, 1.19, 0.61, 0.61, 0.0, 0.0, 0.0, 0.0, 0.0, -0.59, -0.59, -1.16, -1.16, -0.81, -1.07, -1.16, -0.59, -0.58, -1.1, -1.76, -2.16, -1.7, -0.82, -1.03, -1.7, -2.29, -2.47, -2.29, -2.75, -2.75, -2.75, -2.77, -2.8, -2.36, -2.84, -4.12, -3.72, -2.68, -1.33, -0.65, 0.0, 1.27, 3.16, 4.09, 4.09, 3.48, 2.73, 2.4, 2.4, 2.6, 2.6, 3.22, 5.01, 4.74, 4.74, 4.74, 4.75, 4.75, 3.4, 3.2, 2.12, 0.79, 0.0, 0.0, 1.6, 1.7, 0.0, -3.16, -3.17, -1.5, 0.0, 0.75, 0.75, 0.78, 0.0, 0.0, 0.75, 1.5, 0.76, 0.73, 0.0, 1.32, 1.94, 3.16, 3.14, 4.0, 3.49, 2.53, 2.84, 3.43, 3.64, 1.94, 2.0, 2.0, 2.51, 2.51, 1.73, 1.73, 1.19, 1.19, 0.61, 0.61, 0.54, 0.0, 0.0, 0.0, 0.0, -0.59, -0.59, -0.59, -1.16, -1.16, -1.07, -1.19, -0.88, -0.73, -1.6, -2.36, -2.84, -3.22, -3.22, -2.6, -1.55, -2.48, -2.22, -2.22, -2.86, -2.84, -2.82, -3.04, -2.8, -2.8, -2.8, -3.45, -2.77, -2.14, -1.12, 0.0, 0.58, 1.7, 2.2, 2.4, 2.73, 2.73, 2.2, 2.4, 2.4, 2.4, 2.4, 4.11, 2.5, 3.45, 5.37, 3.79, 3.35, 3.68, 2.26, 2.49, 1.23, 0.0, 0.0, 1.6, 2.24, 2.6, 1.49, 0.0, 0.0, 0.8, 1.5, 0.77, 0.0, -2.28, -4.6, -5.49, -2.97, -1.52, -0.77, -0.77, -0.76, 0.67, 2.48, 3.78, 4.52, 4.52, 3.72, 3.14, 2.53, 2.0, 2.11, 1.23, 1.27, 1.8, 2.51, 2.51, 1.73, 1.73, 1.19, 1.19, 0.61, 0.54, 0.54, 0.0, 0.0, 0.0, 0.0, 0.0, -0.59, -0.53, -1.16, -1.16, -1.16, -1.7, -1.7, -2.29, -1.72, -1.73, -2.22, -3.49, -3.47, -2.82, -1.73, -1.76, -1.13, -1.16, -1.16, -1.84, -2.23, -2.22, -2.2, -2.84, -2.82, -2.32, -1.63, -1.09, 0.0, 0.54, 1.07, 1.73, 2.32, 2.32, 2.4, 1.3, 1.3, 1.3, 1.3, 1.3, 2.98, 4.29, 5.81, 3.07, 4.19, 4.43, 4.47, 2.32, 1.14, 1.14, 0.0, 0.0, 0.8, 2.68, 3.13, 3.95, 4.22, 4.11, 4.56, 4.6, 3.04, 0.0, -2.35, -5.55, -9.84, -9.62, -7.97, -5.49, -3.15, -2.23, 0.0, 2.66, 4.81, 4.52, 5.16, 5.2, 4.93, 4.37, 2.51, 1.8, 1.35, 0.63, 0.59, 1.84, 3.14, 3.14, 1.73, 1.73, 1.19, 1.19, 0.61, 0.54, 0.54, 0.0, 0.0, 0.0, 0.0, 0.0, -0.53, -0.53, -1.05, -1.05, -1.16, -1.67, -2.32, -2.29, -1.76, -1.14, -1.73, -2.4, -2.82, -2.16, -1.67, -1.14, -0.59, 0.0, 0.0, -0.57, -1.13, -1.6, -1.8, -2.22, -2.2, -2.36, -1.65, -1.1, -0.55, 0.0, 0.58, 1.18, 1.65, 1.7, 1.14, 1.3, 0.0, 0.0, 0.0, 1.19, 3.48, 4.8, 5.2, 5.6, 4.09, 5.72, 5.69, 2.4, 0.0, 0.0, 0.0, 0.0, 2.8, 4.47, 4.47, 3.13, 3.51, 4.82, 5.81, 6.52, 5.28, 2.23, -5.06, -8.23, -10.41, -11.37, -11.3, -9.19, -6.24, -3.26, 0.0, 3.14, 4.0, 4.52, 4.52, 4.0, 3.35, 4.41, 3.12, 1.76, 1.23, 0.57, 1.33, 2.53, 3.14, 3.14, 1.73, 1.73, 1.73, 1.19, 0.61, 0.54, 0.54, 0.0, 0.0, 0.0, 0.0, 0.0, -0.53, -0.53, -0.58, -1.14, -1.14, -1.67, -2.32, -2.29, -1.63, -1.76, -1.12, -1.65, -1.65, -1.65, -1.65, -1.12, -0.56, 0.0, 0.0, 0.0, -0.53, -0.54, -1.08, -1.76, -1.76, -1.73, -1.7, -1.23, -0.57, 0.0, 0.0, 0.57, 1.14, 1.16, 1.23, 0.0, 0.0, 0.0, 0.0, 2.73, 4.09, 4.8, 4.8, 4.8, 3.2, 5.05, 6.32, 3.84, 0.6, 0.0, 0.0, 1.86, 3.95, 4.92, 4.92, 3.58, 2.68, 2.24, 1.79, 2.12, 3.69, 2.16, -1.26, -4.41, -7.98, -9.6, -10.8, -11.2, -9.05, -4.09, 0.0, 2.5, 2.91, 3.07, 3.45, 2.79, 2.51, 2.0, 2.6, 2.04, 1.27, 1.13, 1.84, 2.79, 3.14, 3.14, 1.73, 1.73, 1.73, 1.19, 0.61, 0.54, 0.54, 0.0, 0.0, 0.0, 0.0, 0.0, 0.0, -0.58, -0.58, -1.14, -1.14, -1.67, -1.8, -1.65, -1.76, -1.63, -1.73, -1.73, -1.73, -1.18, -1.18, -1.18, -1.18, -0.55, -0.55, -0.59, -0.56, -0.57, -0.58, -1.16, -1.16, -1.16, -1.16, -1.14, -0.57, -0.57, 0.0, 0.0, 0.0, 0.0, 0.0, 0.0, 0.0, 0.0, 1.3, 2.4, 3.48, 4.09, 4.09, 4.09, 1.86, 2.4, 3.6, 5.95, 2.8, 0.63, 1.2, 2.6, 3.58, 5.36, 5.81, 7.06, 3.95, 1.79, 0.0, 0.0, 0.72, 3.16, 3.14, 1.27, -2.98, -6.79, -8.99, -9.68, -9.46, -4.66, -0.54, 0.6, 1.2, 1.86, 1.61, 1.61, 1.33, 1.8, 2.88, 2.66, 2.66, 2.07, 2.53, 2.53, 2.53, 2.53, 1.73, 1.73, 1.73, 1.19, 1.19, 0.61, 0.54, 0.0, 0.0, 0.0, 0.0, 0.0, 0.0, -0.58, -0.58, -1.14, -1.14, -1.8, -1.65, -1.65, -1.76, -2.29, -2.12, -1.73, -1.61, -1.71, -1.16, -1.16, -1.09, -1.09, -1.09, -0.55, -0.59, -0.56, -0.61, -1.12, -1.12, -1.14, -1.14, -1.12, -0.57, -0.57, 0.0, 0.0, 0.0, 0.0, 0.0, 0.0, 0.0, 0.57, 1.14, 1.1, 2.4, 2.73, 3.16, 3.72, 3.16, 1.6, 1.6, 2.5, 4.11, 1.6, 1.26, 2.24, 3.58, 4.92, 5.36, 5.77, 4.85, 0.45, -2.12, -3.07, 0.0, 3.11, 4.81, 5.4, 3.51, 0.0, -5.4, -7.45, -8.24, -4.66, -1.24, 0.0, 0.89, 1.26, 1.24, 1.4, 1.88, 2.53, 3.14, 4.11, 3.43, 3.07, 2.51, 2.23, 2.53, 2.53, 1.73, 1.73, 1.73, 1.19, 1.19, 0.61, 0.54, 0.0, 0.0, 0.0, 0.0, 0.0, 0.0, -0.58, -0.58, -0.58, -1.23, -1.12, -1.65, -1.65, -1.65, -2.29, -2.29, -2.12, -1.73, -1.73, -1.61, -1.71, -1.16, -1.09, -1.09, -1.09, -1.18, -0.59, -0.56, -0.56, -1.2, -1.12, -1.12, -1.12, -0.57, -0.57, -0.57, 0.0, 0.0, 0.0, 0.0, 0.0, 0.0, 0.0, 0.0, 0.0, 0.0, 1.19, 2.48, 2.48, 2.84, 1.6, 1.9, 0.95, 1.4, 3.22, 2.41, 1.6, 2.24, 4.02, 4.92, 4.02, 2.68, 0.89, -1.6, -2.53, -0.74, 1.56, 4.58, 6.21, 6.44, 3.44, -1.33, -4.43, -7.28, -4.0, -1.2, 0.63, 1.27, 1.7, 1.58, 1.61, 2.15, 2.8, 2.68, 3.43, 3.15, 2.48, 2.48, 2.07, 2.53, 2.53, 1.73, 1.73, 1.73, 1.19, 1.19, 0.61, 0.54, 0.54, 0.0, 0.0, 0.0, 0.0, 0.0, 0.0, -0.58, -0.58, -1.12, -1.12, -1.65, -1.65, -1.65, -1.76, -2.29, -2.29, -2.12, -1.73, -1.73, -1.73, -1.73, -1.09, -1.09, -1.18, -1.18, -1.18, -1.1, -1.1, -1.1, -1.1, -1.2, -0.57, -0.57, -0.57, 0.0, 0.0, 0.0, 0.0, 0.0, 0.0, 0.0, 0.0, 0.0, 0.0, 0.0, 0.0, 0.0, 0.71, 1.41, 1.27, 1.2, 0.45, 0.0, 0.7, 1.19, 1.49, 5.2, 3.58, 2.68, 1.6, 0.63, 0.0, -0.8, -3.22, -2.4, 0.0, 3.15, 5.52, 5.18, 3.44, 0.0, -2.79, -3.87, -2.63, -0.0, 1.24, 1.49, 1.34, 1.26, 1.58, 2.4, 2.4, 1.9, 1.88, 2.51, 2.0, 2.0, 1.8, 2.23, 2.23, 1.73, 1.73, 1.73, 1.19, 1.19, 1.19, 0.61, 0.54, 0.0, 0.0, 0.0, 0.0, 0.0, 0.0, -0.58, -0.53, -1.12, -1.12, -1.12, -1.65, -1.65, -1.76, -1.76, -1.76, -1.76, -1.63, -1.73, -1.63, -1.63, -1.63, -1.18, -1.18, -1.18, -1.1, -1.1, -1.1, -1.1, -1.1, -1.12, -0.57, -0.57, -0.53, 0.0, 0.0, 0.0, 0.0, 0.0, 0.0, -0.56, -0.56, -0.56, -0.61, -0.53, -0.59, -0.55, 0.0, 0.0, 0.0, 0.95, 0.89, 0.0, 0.0, 0.0, 0.65, 3.2, 5.7, 2.12, 0.0, -1.0, -1.26, -1.58, -2.15, -3.07, -2.07, 0.0, 0.0, 0.0, 0.76, 0.67, -0.59, -2.68, -2.17, -0.0, 1.26, 1.2, 1.34, 1.2, 1.7, 1.86, 1.58, 1.24, 0.54, 1.27, 1.23, 1.23, 1.27, 1.8, 1.8, 1.73, 1.73, 1.73, 1.19, 1.19, 1.19, 0.61, 0.54, 0.0, 0.0, 0.0, 0.0, 0.0, 0.0, -0.58, -0.53, -0.57, -1.12, -1.12, -1.65, -1.65, -1.65, -1.76, -1.76, -1.76, -1.76, -1.76, -1.63, -1.63, -1.63, -1.63, -1.1, -1.1, -1.1, -1.1, -1.1, -1.1, -1.2, -1.12, -0.57, -0.57, -0.58, -0.53, 0.0, 0.0, 0.58, 0.0, -1.1, -1.76, -1.1, -1.1, -1.12, -1.14, -1.16, -1.19, -1.58, -1.19, 0.0, 0.6, 0.63, 0.0, -0.71, -0.76, 0.65, 2.8, 4.15, 3.83, 0.8, -2.0, -3.04, -1.58, -1.49, -1.47, -4.01, -6.44, -5.76, -4.0, -1.4, 0.0, 0.0, -0.63, -1.58, -0.51, 1.24, 1.49, 1.7, 1.7, 1.26, 0.57, 0.57, 0.0, 0.0, 0.0, 0.57, 0.57, 0.57, 1.27, 1.27, 1.73, 1.73, 1.73, 1.19, 1.19, 1.19, 0.61, 0.54, 0.0, 0.0, 0.0, 0.0, 0.0, 0.0, 0.0, -0.53, -0.57, -1.12, -1.12, -1.12, -1.65, -1.65, -1.65, -1.76, -1.76, -1.76, -1.76, -1.76, -1.63, -1.63, -1.63, -1.63, -1.1, -1.1, -1.1, -1.1, -1.1, -1.2, -1.12, -1.12, -0.57, -0.58, -0.58, -0.59, 0.0, 0.0, 0.0, -1.14, -1.7, -1.7, -1.7, -1.55, -1.67, -1.7, -1.73, -1.76, -1.58, -1.13, 0.0, 0.0, 0.0, -0.54, 0.0, 1.24, 2.23, 1.86, 3.04, 3.9, 0.89, -1.34, -2.12, 0.0, 0.78, 0.0, -4.6, -7.18, -6.05, -3.8, -1.49, 0.0, 0.0, -0.54, -0.51, 0.0, 1.55, 1.88, 1.9, 1.0, 0.0, 0.0, 0.0, 0.0, 0.0, 0.0, 0.0, 0.0, 0.66, 0.66, 1.73, 1.73, 1.73, 1.19, 1.19, 1.19, 0.61, 0.54, 0.0, 0.0, 0.0, 0.0, 0.0, 0.0, 0.0, -0.53, -0.57, -0.57, -1.12, -1.12, -1.12, -1.65, -1.65, -1.65, -1.65, -1.76, -1.76, -1.76, -1.2, -1.63, -1.63, -1.63, -1.63, -1.63, -1.1, -1.1, -1.2, -1.2, -1.12, -1.12, -1.12, -1.14, -1.14, -1.16, -1.07, -1.47, -0.78, -0.58, -0.54, -0.55, -0.55, -0.55, -1.23, -1.76, -1.8, -1.6, -1.8, -1.6, -0.61, 0.0, 0.0, 0.0, 0.71, 1.24, 0.71, 0.8, 0.89, 2.24, 2.68, 0.0, -0.95, 0.95, 3.07, 4.6, 2.28, -2.28, -5.38, -5.49, -3.09, -1.56, -0.69, 0.0, 0.0, 1.07, 1.59, 1.53, 1.57, 1.16, 0.61, 0.0, -0.57, -0.8, -0.54, -0.51, 0.0, 0.0, 0.0, 0.0, 1.73, 1.73, 1.73, 1.19, 1.19, 1.19, 0.61, 0.54, 0.0, 0.0, 0.0, 0.0, 0.0, 0.0, 0.0, -0.53, -0.57, -0.57, -1.12, -1.12, -1.12, -1.12, -1.65, -1.65, -1.65, -1.65, -1.65, -1.65, -1.52, -1.23, -1.65, -1.65, -1.76, -1.76, -1.76, -1.76, -1.65, -1.12, -1.12, -1.12, -1.14, -1.14, -1.14, -1.05, -1.67, -2.29, -1.73, -0.56, -0.58, 0.0, 0.0, 0.0, 0.0, 0.0, 0.0, -1.16, -1.16, -1.16, -1.16, -0.53, 0.0, 0.0, 1.24, 0.65, 0.0, 0.0, 0.0, 0.0, 0.0, 0.0, 0.0, 1.2, 1.2, 2.16, 4.55, 1.55, -1.55, -3.84, -3.72, -2.75, -1.36, 0.0, 1.36, 2.17, 2.25, 2.17, 1.53, 1.57, 1.27, 0.63, 0.0, -0.99, -1.24, -1.0, -0.59, -0.57, 0.0, 0.0, 1.73, 1.73, 1.73, 1.19, 1.19, 1.19, 0.61, 0.61, 0.0, 0.0, 0.0, 0.0, 0.0, 0.0, 0.0, -0.58, -0.53, -0.57, -0.57, -1.12, -1.12, -1.12, -1.12, -1.65, -1.65, -1.65, -1.65, -1.65, -1.65, -1.52, -1.14, -1.67, -1.65, -1.65, -1.65, -1.65, -1.65, -1.8, -1.8, -1.67, -1.14, -1.14, -1.14, -1.14, -1.67, -1.65, -1.63, -0.56, -0.56, -0.57, 0.0, 0.0, 0.0, 0.0, 0.0, 0.0, 0.0, -0.59, -0.51, -0.61, 0.0, 0.85, 1.41, 0.54, 0.0, 0.0, 0.0, -0.6, -1.26, -0.85, 0.0, 1.58, 0.0, -0.76, 0.0, 1.5, 0.76, 0.0, -0.61, -0.69, 0.0, 0.67, 1.36, 2.09, 1.66, 1.6, 1.59, 1.54, 0.63, 0.7, 0.0, -1.0, -1.86, -1.61, -1.84, -0.66, -0.59, -0.59, 1.73, 1.73, 1.73, 1.19, 1.19, 1.19, 0.61, 0.61, 0.0, 0.0, 0.0, 0.0, 0.0, 0.0, 0.0, -0.58, -0.58, -0.57, -0.57, -0.57, -1.12, -1.12, -1.12, -1.65, -1.65, -1.65, -1.65, -1.65, -1.76, -1.65, -1.12, -1.23, -1.12, -1.12, -1.12, -1.23, -1.14, -1.14, -1.14, -1.14, -1.14, -1.14, -1.14, -1.14, -1.14, -1.65, -1.12, -1.2, -1.1, -0.61, -0.61, -0.57, -0.57, -0.57, -0.57, -0.58, -0.53, -0.59, -0.57, 0.0, 0.0, 0.0, 1.27, 1.41, 0.57, 0.0, 0.0, 0.0, -0.8, -0.71, 0.0, 1.0, 0.0, -4.16, -3.91, -0.75, 2.3, 3.04, 2.71, 1.44, 0.0, 0.0, 0.0, 0.0, 0.0, 0.52, 0.54, 0.53, 0.0, 0.0, -0.61, -1.4, -2.23, -2.15, -2.53, -1.27, -0.59, -0.59, 1.73, 1.73, 1.73, 1.08, 1.08, 0.61, 0.61, 0.61, 0.0, 0.0, 0.0, 0.0, 0.0, 0.0, 0.0, -0.58, -0.58, -0.53, -0.57, -0.57, -1.12, -1.12, -1.12, -1.12, -1.65, -1.65, -1.65, -1.65, -1.76, -1.76, -1.65, -1.12, -1.12, -1.12, -1.12, -1.12, -1.12, -1.14, -1.14, -1.14, -1.14, -1.14, -1.14, -1.14, -1.14, -1.12, -1.12, -1.12, -1.12, -1.12, -1.12, -1.12, -1.12, -0.57, -0.53, -0.58, -0.58, -0.59, -0.54, 0.0, 0.0, 0.0, 1.27, 1.27, 1.41, 1.27, 0.57, 0.0, 0.0, 0.0, 0.0, 0.0, 0.0, -2.35, -3.91, -1.51, 2.3, 4.71, 5.56, 3.98, 0.69, -0.72, -1.44, -1.42, -0.71, 0.0, 0.0, 0.0, -0.61, -1.41, -1.19, -1.8, -2.4, -2.8, -3.07, -2.79, -1.16, -1.16, 1.73, 1.73, 1.57, 1.08, 1.08, 0.55, 0.61, 0.61, 0.0, 0.0, 0.0, 0.0, 0.0, 0.0, 0.0, 0.0, -0.58, -0.53, -0.57, -0.57, -1.12, -1.12, -1.12, -1.12, -1.12, -1.65, -1.65, -1.65, -1.65, -1.65, -1.65, -1.65, -1.12, -1.12, -1.12, -1.12, -1.12, -1.12, -1.04, -1.14, -1.14, -1.14, -0.58, -0.58, -0.58, -1.12, -1.12, -1.12, -1.12, -1.12, -1.12, -1.12, -1.12, -1.14, -1.14, -1.14, -0.53, -0.59, -0.54, -0.57, 0.0, 0.0, 0.0, 0.0, 0.0, 1.19, 0.71, 0.0, 0.0, 0.0, 0.0, 0.0, 0.0, 1.62, 0.0, -0.75, 0.0, 2.31, 3.1, 2.84, 1.42, 0.0, 0.0, -0.69, -0.64, -0.72, -0.7, -1.23, -1.76, -2.04, -1.19, -1.6, -1.9, -2.4, -2.91, -2.15, -1.2, -1.2, 1.57, 1.57, 1.08, 1.08, 1.08, 0.55, 0.55, 0.61, 0.0, 0.0, 0.0, 0.0, 0.0, 0.0, 0.0, 0.0, -0.58, -0.58, -0.53, -0.57, -0.57, -1.12, -1.12, -1.12, -1.12, -1.65, -1.65, -1.65, -1.65, -1.65, -1.65, -1.65, -1.65, -1.65, -1.12, -1.12, -1.12, -1.12, -1.12, -1.04, -1.14, -1.14, -0.53, 0.0, -0.53, -1.12, -1.12, -1.65, -1.65, -1.65, -1.65, -1.8, -1.8, -1.14, -1.14, -1.16, -1.16, -1.07, -0.55, -0.57, -0.59, -0.61, 0.0, 0.0, 0.0, 0.0, 0.0, 0.0, 0.0, 0.0, -0.57, 0.0, 1.74, 5.45, 4.75, 1.54, -0.78, -1.58, -1.54, -0.7, 0.0, 0.71, 0.71, 0.0, 0.0, -0.57, -0.66, -1.8, -2.0, -1.76, -0.63, 0.0, -1.2, -2.23, -2.4, -0.6, 1.86, 0.0, 1.57, 1.57, 1.08, 1.08, 1.08, 0.55, 0.55, 0.0, 0.0, 0.0, 0.0, 0.0, 0.0, 0.0, 0.0, 0.0, -0.53, -0.58, -0.58, -0.57, -0.57, -1.12, -1.12, -1.12, -1.12, -1.12, -1.65, -1.65, -1.65, -1.65, -1.65, -1.65, -1.65, -1.65, -1.65, -1.12, -1.12, -1.12, -1.12, -1.14, -1.14, -1.14, -1.16, -0.76, 0.0, -0.57, -1.65, -1.8, -1.8, -1.8, -1.8, -1.67, -1.67, -1.67, -1.7, -1.7, -1.07, -1.19, -1.23, -1.11, -1.13, -0.61, 0.0, 0.0, 0.0, 0.0, 0.0, 0.0, 0.0, -0.71, 0.0, 0.0, 1.26, 4.16, 6.33, 6.21, 2.26, -1.52, -3.44, -2.82, -1.43, 0.0, 0.0, 0.0, 0.0, 0.0, 0.0, -0.66, -1.11, -0.63, 0.0, 0.57, 0.0, -0.65, 0.0, 2.0, 3.53, 1.86, 1.08, 1.08, 1.08, 1.08, 1.08, 0.55, 0.55, 0.0, 0.0, 0.0, 0.0, 0.0, 0.0, 0.0, 0.0, -0.59, -0.53, -0.58, -0.58, -0.53, -0.57, -1.12, -1.12, -1.12, -1.12, -1.12, -1.12, -1.65, -1.65, -1.65, -1.65, -1.65, -1.65, -1.65, -1.65, -1.12, -1.12, -1.12, -1.14, -1.14, -1.14, -1.14, -1.16, -1.07, -0.76, -0.57, -1.65, -1.84, -1.84, -1.84, -1.84, -1.84, -1.7, -1.7, -1.7, -1.73, -1.73, -1.23, -1.11, -1.27, -1.13, -1.16, -0.65, 0.0, 0.0, -1.08, -0.71, -0.54, -0.85, 0.0, 0.0, 0.6, 0.0, 0.0, 4.21, 8.01, 7.73, 3.91, 0.72, -0.7, -0.66, 0.0, 0.0, 0.73, 0.69, 0.71, 0.67, 0.0, 0.0, 0.0, 0.63, 0.63, 0.63, 0.81, 2.79, 4.52, 4.88, 3.53, 1.08, 1.08, 1.08, 1.08, 1.08, 0.55, 0.55, 0.0, 0.0, 0.0, 0.0, 0.0, 0.0, 0.0, 0.0, -0.59, -0.53, -0.53, -0.58, -0.58, -0.57, -1.12, -1.12, -1.12, -1.12, -1.12, -1.12, -1.12, -1.12, -1.65, -1.65, -1.65, -1.65, -1.65, -1.65, -1.65, -1.12, -1.23, -1.14, -1.14, -1.14, -1.14, -1.7, -1.7, -1.67, -1.52, -1.14, -1.7, -1.73, -1.73, -1.73, -1.73, -1.73, -1.73, -1.73, -1.73, -1.76, -1.11, -1.13, -1.13, -1.16, -1.0, -1.27, 0.0, 0.0, 0.0, -0.65, -1.3, 0.0, 0.0, 0.71, 0.6, -0.6, -1.6, 0.0, 4.87, 7.08, 6.71, 4.71, 3.09, 2.04, 1.98, 2.12, 2.06, 2.15, 1.4, 0.67, 0.0, 0.0, 0.0, 0.0, 0.0, 0.63, 3.11, 5.43, 6.0, 6.07, 6.07, 1.08, 1.08, 1.08, 1.08, 0.55, 0.55, 0.55, 0.0, 0.0, 0.0, 0.0, 0.0, 0.0, 0.0, -0.54, -0.59, -0.59, -0.53, -0.58, -0.58, -0.58, -1.12, -1.12, -1.12, -1.12, -1.12, -1.12, -1.12, -1.12, -1.12, -1.12, -1.12, -1.12, -1.8, -1.8, -1.8, -1.8, -1.8, -1.14, -1.14, -1.67, -1.67, -1.84, -1.67, -2.32, -1.76, -1.12, -1.05, -1.16, -1.07, -1.07, -1.07, -1.19, -1.19, -1.08, -1.08, -1.11, -1.11, -1.13, -1.13, -1.33, -1.16, -1.0, 0.0, 0.0, 0.0, 0.0, 0.0, 0.57, 1.24, 1.26, 0.0, -1.26, -2.54, -1.7, 0.0, 2.4, 4.58, 5.29, 6.21, 6.21, 5.68, 4.94, 4.24, 3.47, 1.56, 0.0, 0.0, 0.0, 0.0, 0.0, 0.0, 0.61, 2.53, 5.43, 6.55, 6.55, 6.55, 1.08, 1.08, 1.08, 1.08, 0.55, 0.55, 0.55, 0.0, 0.0, 0.0, 0.0, 0.0, 0.0, 0.0, -0.54, -0.59, -0.59, -0.53, -0.53, -1.14, -1.14, -1.14, -1.12, -1.12, -1.12, -1.12, -1.12, -1.12, -1.12, -1.12, -1.12, -1.23, -1.23, -1.23, -1.8, -1.8, -1.8, -1.67, -1.67, -1.67, -1.67, -1.67, -1.67, -1.67, -1.8, -1.65, -1.12, -1.12, -1.14, -1.14, -1.05, -0.59, -0.59, -0.54, -1.07, -1.19, -1.08, -1.11, -1.11, -1.13, -1.13, -1.13, -1.16, -1.41, 0.0, 0.0, 1.19, 1.41, 1.58, 2.23, 0.8, 0.0, -1.58, -3.04, -4.41, -3.2, -0.76, 1.5, 3.87, 6.2, 7.82, 7.84, 6.92, 5.57, 4.17, 2.71, 0.69, 0.0, -0.67, -0.72, -0.66, 0.0, 1.9, 4.19, 5.34, 6.66, 6.66, 6.66, 1.08, 1.08, 1.08, 1.08, 0.55, 0.55, 0.0, 0.0, 0.0, 0.0, 0.0, 0.0, 0.0, -0.54, -0.54, -0.59, -0.59, -0.59, -0.53, -1.14, -1.14, -1.14, -1.14, -1.12, -1.12, -1.12, -1.12, -1.12, -1.12, -1.23, -1.23, -1.23, -1.14, -1.14, -1.67, -1.67, -1.67, -1.67, -1.67, -1.67, -1.67, -1.67, -1.67, -1.67, -1.67, -1.8, -1.65, -1.12, -1.12, -1.23, -1.14, -1.14, -1.14, -1.14, -1.16, -1.07, -1.19, -1.08, -1.23, -1.11, -1.11, -1.13, -1.13, -0.59, 0.0, 0.0, 1.19, 0.85, 2.21, 1.49, 0.0, -0.8, -2.6, -3.6, -3.83, -2.86, -1.66, 0.0, 2.34, 5.38, 7.71, 9.18, 7.91, 5.65, 4.17, 3.53, 2.06, 0.73, 0.0, -0.57, 0.0, 2.49, 3.45, 4.46, 4.73, 6.71, 6.71, 6.71, 1.08, 1.08, 1.08, 0.55, 0.55, 0.55, 0.0, 0.0, 0.0, 0.0, 0.0, 0.0, 0.0, -0.54, -0.54, -0.59, -0.59, -0.59, -0.53, -1.14, -1.14, -1.14, -1.14, -1.23, -1.23, -1.12, -1.12, -1.12, -1.23, -1.23, -1.23, -1.14, -1.14, -1.14, -1.67, -1.67, -1.67, -1.67, -1.67, -1.67, -1.67, -1.67, -1.67, -1.67, -1.67, -1.8, -1.8, -1.8, -1.8, -1.8, -1.8, -1.14, -1.14, -1.14, -1.14, -1.16, -1.16, -1.19, -1.08, -1.08, -1.23, -1.11, -1.13, -1.13, -0.51, 0.0, 0.0, 0.0, 0.0, 0.0, -0.71, -1.49, -1.49, -1.74, -1.4, 0.0, 0.0, 0.0, 0.78, 3.69, 6.1, 7.7, 7.22, 5.65, 5.02, 4.24, 2.76, 1.36, 0.74, 0.0, 2.8, 2.68, 3.14, 3.83, 5.77, 6.71, 6.71, 6.71, 1.08, 1.08, 1.08, 0.55, 0.55, 0.55, 0.0, 0.0, 0.0, 0.0, 0.0, 0.0, -0.54, -0.54, -0.54, -0.54, -0.59, -0.59, -1.16, -1.05, -1.14, -1.14, -1.14, -1.14, -1.14, -1.23, -1.23, -1.23, -1.23, -1.23, -1.14, -1.14, -1.14, -1.67, -1.67, -1.67, -1.67, -1.67, -1.67, -1.67, -1.67, -1.67, -1.67, -1.67, -1.67, -1.67, -1.8, -1.8, -1.8, -1.8, -1.67, -1.67, -1.67, -1.67, -1.14, -1.16, -1.16, -1.19, -1.19, -1.08, -1.23, -1.11, -1.27, -1.13, -0.51, 0.0, 0.0, 0.0, 0.0, -0.71, -1.49, -1.49, -0.85, -0.76, 0.0, 0.0, 0.0, 0.0, 1.58, 3.09, 4.92, 5.45, 6.37, 7.21, 7.11, 5.02, 2.88, 2.12, 1.27, 1.34, 1.2, 1.9, 2.23, 3.82, 5.81, 6.71, 6.71, 6.71, 1.08, 1.08, 1.08, 0.55, 0.55, 0.0, 0.0, 0.0, 0.0, 0.0, 0.0, -0.54, -0.54, -0.54, -0.54, -0.54, -0.59, -0.59, -1.16, -1.05, -1.14, -1.14, -1.14, -1.14, -1.14, -1.14, -1.14, -1.14, -1.14, -1.14, -1.14, -1.14, -1.67, -1.67, -1.67, -1.67, -1.67, -1.67, -1.67, -1.67, -1.67, -1.67, -1.67, -1.67, -1.67, -1.67, -1.67, -1.67, -1.67, -1.67, -1.67, -1.67, -1.67, -1.67, -1.84, -1.7, -1.7, -1.73, -1.73, -1.08, -1.23, -1.11, -1.27, -1.13, -0.61, 0.0, 0.0, 0.0, 0.0, 0.0, 0.0, -0.76, -0.87, -0.79, 0.0, 0.0, 0.0, 0.0, 1.63, 2.35, 2.99, 3.91, 7.0, 9.18, 8.43, 6.4, 3.37, 2.0, 2.23, 0.63, 0.0, 0.57, 2.91, 4.47, 6.22, 6.71, 6.71, 6.71, 1.08, 1.08, 0.55, 0.55, 0.55, 0.0, 0.0, 0.0, 0.0, 0.0, 0.0, -0.54, -0.54, -0.54, -0.54, -0.54, -0.59, -1.16, -1.16, -1.16, -1.05, -1.14, -1.14, -1.14, -1.14, -1.14, -1.14, -1.14, -1.14, -1.14, -1.14, -1.14, -1.67, -1.67, -1.67, -1.67, -1.67, -1.67, -1.67, -1.67, -1.67, -1.67, -1.67, -1.67, -1.67, -1.67, -1.67, -1.67, -1.67, -1.67, -1.67, -1.67, -1.67, -1.67, -1.84, -1.7, -1.7, -1.73, -1.73, -1.73, -1.08, -1.23, -1.11, -1.13, -1.16, -0.87, 0.0, 0.0, 0.88, 0.88, 0.0, 0.0, -0.87, -0.79, -0.79, -0.7, 0.0, 0.0, 0.81, 2.29, 2.26, 3.06, 6.09, 8.36, 7.84, 5.81, 1.88, 2.4, 1.86, 0.0, 0.6, 2.68, 3.98, 6.21, 5.78, 6.22, 6.22, 6.22, 1.08, 1.08, 0.55, 0.55, 0.55, 0.55, 0.0, 0.0, 0.0, 0.0, 0.0, -0.54, -0.54, -0.54, -0.54, -0.54, -1.07, -1.16, -1.16, -1.16, -1.16, -1.14, -1.14, -1.14, -1.14, -1.14, -1.14, -1.14, -1.14, -1.14, -1.14, -1.67, -1.67, -1.67, -1.67, -1.67, -1.67, -1.67, -1.67, -1.67, -1.67, -1.67, -1.67, -1.67, -1.67, -1.67, -1.67, -1.67, -1.67, -1.67, -1.67, -1.67, -1.67, -1.84, -1.84, -1.7, -1.7, -1.88, -1.73, -1.73, -1.57, -1.23, -1.11, -1.13, -1.33, -0.87, -0.87, 0.0, 0.87, 0.0, 0.0, 0.0, -0.79, -1.66, -1.49, -0.87, 0.0, 0.0, 0.7, 1.55, 1.52, 2.51, 3.91, 4.68, 4.52, 1.39, 1.4, 2.17, 0.6, 1.2, 4.02, 6.11, 6.58, 6.55, 6.22, 6.66, 6.66, 6.66, 1.08, 1.08, 0.55, 0.55, 0.55, 0.55, 0.0, 0.0, 0.0, 0.0, 0.0, -0.54, -0.54, -0.54, -0.54, -0.54, -1.07, -1.16, -1.16, -1.16, -1.16, -1.16, -1.14, -1.14, -1.14, -1.14, -1.67, -1.67, -1.67, -1.67, -1.67, -1.67, -1.67, -1.67, -1.67, -1.67, -1.67, -1.67, -1.67, -1.67, -1.67, -1.67, -1.67, -1.67, -1.67, -1.67, -1.67, -1.67, -1.67, -1.67, -1.67, -1.67, -1.67, -1.84, -1.7, -1.7, -1.7, -1.88, -1.73, -1.73, -1.57, -1.76, -1.58, -1.8, -1.16, -1.0, -0.76, -0.99, 0.0, 0.0, 0.0, 0.0, 0.0, -1.8, -1.66, -1.6, -0.76, 0.0, 0.0, 0.79, 1.47, 1.52, 1.63, 1.54, 0.0, 0.0, 0.7, 1.26, 0.0, 2.53, 7.33, 7.48, 5.2, 6.07, 6.55, 6.55, 6.55, 6.55, 1.08, 1.08, 0.55, 0.55, 0.55, 0.0, 0.0, 0.0, 0.0, 0.0, 0.0, -0.54, -0.54, -0.54, -0.54, -1.07, -1.07, -1.07, -1.16, -1.16, -1.16, -1.16, -1.14, -1.14, -1.67, -1.67, -1.67, -1.67, -1.67, -1.67, -1.67, -1.67, -1.67, -1.67, -1.67, -1.67, -1.67, -1.67, -1.67, -1.67, -1.67, -1.67, -1.67, -1.67, -1.67, -1.67, -1.67, -1.67, -1.67, -1.67, -1.67, -1.67, -1.84, -1.84, -1.7, -1.7, -1.7, -1.88, -1.73, -1.73, -1.57, -1.76, -1.76, -1.58, -1.16, -1.0, -0.85, -0.85, -0.8, 0.0, 0.0, 0.0, 0.0, -0.85, -2.41, -1.6, 0.0, 0.0, 0.0, 0.0, 0.0, 0.76, 0.78, 0.0, -0.7, -0.69, 0.0, 0.0, 0.0, 4.02, 6.01, 5.86, 4.3, 5.34, 6.79, 7.01, 7.01, 7.01, 0.55, 0.55, 0.55, 0.55, 0.55, 0.0, 0.0, 0.0, 0.0, 0.0, 0.0, -0.54, -0.54, -0.54, -0.54, -1.07, -1.07, -1.07, -1.16, -1.16, -1.16, -1.16, -1.16, -1.67, -1.67, -1.67, -1.67, -1.67, -1.67, -1.67, -1.67, -1.67, -1.67, -1.67, -1.67, -1.67, -1.67, -1.67, -1.67, -1.67, -1.67, -1.67, -1.67, -1.67, -1.67, -1.67, -1.67, -1.67, -1.67, -1.67, -1.67, -2.36, -2.36, -2.36, -2.18, -2.18, -2.18, -1.88, -1.73, -1.73, -1.57, -1.76, -1.76, -1.58, -1.16, -1.2, -1.2, -1.0, -0.57, -0.8, -0.8, -1.9, -0.71, 0.0, 0.6, 0.0, 0.0, 0.0, 0.0, 0.0, 0.0, 0.0, 0.0, 0.79, 0.0, 0.0, -0.72, -1.2, 0.99, 5.59, 5.35, 4.73, 4.0, 6.0, 6.94, 7.28, 7.28, 7.28, 0.55, 0.55, 0.55, 0.55, 0.55, 0.0, 0.0, 0.0, 0.0, 0.0, 0.0, -0.54, -0.54, -0.54, -0.54, -1.07, -1.07, -1.07, -1.07, -1.16, -1.16, -1.16, -1.16, -1.7, -1.84, -1.67, -1.67, -1.67, -1.67, -1.67, -1.67, -1.67, -1.67, -1.67, -1.67, -1.67, -1.67, -1.67, -1.67, -1.67, -1.67, -1.67, -1.67, -1.67, -1.67, -1.67, -1.67, -1.67, -1.67, -1.67, -2.16, -2.36, -2.36, -2.36, -2.18, -2.18, -2.18, -2.4, -2.2, -2.2, -1.94, -1.76, -1.76, -1.76, -1.8, -1.16, -1.2, -1.0, -0.8, -0.57, -0.71, -0.99, -0.99, 0.0, 0.85, 1.0, 0.95, 0.0, 0.0, 0.0, 0.0, 0.0, 0.8, 2.31, 3.07, 0.74, -1.33, -0.45, 3.43, 5.78, 5.94, 6.0, 6.44, 7.03, 7.35, 6.36, 6.36, 6.36, 0.55, 0.55, 0.55, 0.61, 0.61, 0.0, 0.0, 0.0, 0.0, 0.0, 0.0, -0.54, -0.54, -0.54, -0.54, -1.07, -1.07, -1.07, -1.07, -1.16, -1.16, -1.16, -1.7, -1.7, -1.7, -1.7, -1.84, -1.67, -1.67, -1.67, -1.67, -1.67, -1.67, -1.67, -1.67, -1.67, -1.67, -1.67, -1.67, -1.67, -1.67, -1.67, -1.67, -1.67, -1.67, -1.67, -1.67, -1.67, -1.67, -1.67, -2.16, -2.36, -2.36, -2.36, -2.18, -2.18, -2.18, -2.4, -2.2, -2.2, -2.44, -2.22, -2.22, -1.76, -1.8, -1.6, -1.61, -1.2, -1.2, -0.57, -0.57, -0.71, 0.0, 0.0, 0.76, 0.0, 0.0, -0.63, -0.6, -0.8, -0.57, 0.0, 0.0, 1.5, 3.1, 2.33, -1.23, -0.0, 5.0, 5.86, 6.58, 7.96, 8.18, 7.07, 6.64, 6.94, 6.94, 6.94, 0.61, 0.61, 0.61, 0.61, 0.61, 0.0, 0.0, 0.0, 0.0, 0.0, 0.0, -0.54, -0.54, -0.54, -0.54, -1.07, -1.07, -1.07, -1.07, -1.07, -1.16, -1.7, -1.7, -1.7, -1.7, -1.7, -1.7, -1.7, -1.7, -1.84, -1.84, -1.84, -1.84, -1.84, -1.84, -1.84, -1.7, -1.7, -1.67, -1.67, -1.67, -1.67, -1.67, -1.67, -1.67, -1.67, -1.67, -1.67, -1.67, -1.67, -2.36, -2.36, -2.36, -2.36, -2.18, -2.18, -2.18, -2.4, -2.2, -2.2, -2.44, -2.22, -2.22, -2.22, -2.22, -2.23, -1.8, -1.84, -1.84, -1.26, -0.8, -0.71, -0.71, 0.0, 0.0, 0.0, 0.0, -0.6, -1.26, -0.8, -0.57, 0.0, 0.0, 0.0, 0.76, 2.32, 0.0, 0.0, 2.5, 5.35, 6.92, 8.24, 8.18, 7.07, 7.03, 7.47, 7.47, 7.47, 0.61, 0.61, 0.61, 0.61, 0.61, 0.0, 0.0, 0.0, 0.0, 0.0, 0.0, -0.54, -0.54, -0.54, -0.54, -1.19, -1.19, -1.19, -1.07, -1.07, -1.7, -1.7, -1.7, -1.7, -1.7, -1.7, -1.7, -1.7, -1.7, -1.7, -1.7, -1.7, -1.7, -1.7, -1.7, -1.7, -1.7, -1.7, -1.7, -1.7, -1.67, -1.67, -1.67, -1.67, -1.67, -1.67, -1.67, -1.67, -1.67, -1.67, -2.36, -2.36, -2.36, -2.36, -2.18, -2.18, -2.18, -2.4, -2.4, -2.2, -2.44, -2.44, -2.22, -2.22, -2.22, -2.22, -2.48, -2.23, -2.51, -1.9, -1.58, -1.49, -1.0, 0.0, 0.0, 0.0, 0.0, 0.0, -1.0, 0.0, 0.0, 0.0, -0.73, -0.76, -0.75, 0.76, 0.78, 0.7, 1.27, 2.6, 6.01, 7.96, 7.59, 7.07, 7.42, 6.94, 6.94, 6.94, 0.61, 0.61, 0.61, 0.61, 0.61, 0.0, 0.0, 0.0, 0.0, 0.0, 0.0, -0.54, -0.54, -0.54, -0.54, -1.19, -1.19, -1.19, -1.19, -1.07, -1.55, -1.7, -1.7, -1.7, -1.7, -1.7, -1.7, -1.7, -1.7, -1.7, -1.7, -1.7, -1.7, -1.7, -1.7, -1.7, -1.7, -1.7, -1.7, -1.7, -1.84, -1.67, -1.67, -1.67, -1.67, -1.67, -1.67, -1.67, -1.67, -1.67, -2.36, -2.36, -2.36, -2.36, -2.18, -2.18, -2.18, -2.4, -2.4, -2.2, -2.44, -2.44, -2.22, -2.22, -2.22, -2.22, -2.22, -2.86, -2.86, -2.86, -3.16, -1.49, -1.0, -0.8, 0.0, 0.0, 0.0, 0.0, 0.0, 0.0, 0.0, 0.0, -0.73, -1.49, -1.54, -0.78, 0.0, 1.43, 1.44, 1.32, 2.68, 6.32, 7.92, 8.24, 8.0, 6.94, 6.94, 6.94, 0.61, 0.61, 0.61, 0.61, 0.54, 0.0, 0.0, 0.0, 0.0, 0.0, 0.0, -0.54, -0.54, -0.54, -0.61, -1.19, -1.19, -1.19, -1.19, -1.19, -1.73, -1.55, -1.7, -1.7, -1.7, -1.7, -1.7, -1.7, -1.7, -1.7, -1.7, -1.7, -1.7, -1.7, -1.7, -1.7, -1.7, -1.7, -1.7, -1.7, -1.7, -1.84, -1.67, -1.67, -1.67, -1.67, -1.67, -1.67, -1.67, -1.67, -2.36, -2.36, -2.36, -2.36, -2.18, -2.18, -2.18, -2.4, -2.4, -2.2, -2.44, -2.44, -2.44, -2.6, -2.6, -2.6, -2.6, -2.86, -2.86, -2.86, -2.86, -2.53, -0.71, -1.27, 0.0, 0.0, 0.0, 0.0, 0.0, 0.0, 0.0, -0.76, -1.55, -2.26, -2.25, -0.77, 0.0, 1.51, 2.1, 2.06, 2.8, 4.47, 8.14, 8.4, 7.73, 7.06, 7.06, 7.06, 0.61, 0.61, 0.61, 0.54, 0.0, 0.0, 0.0, 0.0, 0.0, 0.0, 0.0, -0.54, -0.54, -0.54, -0.61, -1.19, -1.19, -1.19, -1.19, -1.73, -1.73, -1.73, -1.55, -1.7, -1.7, -1.7, -1.7, -1.7, -1.7, -1.7, -1.7, -1.7, -1.7, -1.7, -1.7, -1.7, -1.7, -1.7, -1.7, -1.7, -1.7, -1.7, -1.84, -1.67, -1.67, -1.67, -1.67, -1.67, -1.67, -1.67, -2.36, -2.36, -2.36, -2.36, -2.36, -2.18, -2.18, -2.4, -2.4, -2.4, -2.2, -2.86, -2.86, -2.86, -2.86, -2.6, -2.6, -2.6, -2.86, -2.86, -2.86, -2.48, -1.8, -1.41, 0.0, 0.0, 0.0, 0.0, 0.0, 0.0, -0.8, -1.4, -2.3, -2.51, -2.21, -0.78, 0.74, 2.25, 3.04, 3.82, 4.07, 4.0, 6.55, 7.33, 7.06, 6.54, 6.54, 6.54, 0.61, 0.61, 0.61, 0.54, 0.0, 0.0, 0.0, 0.0, 0.0, 0.0, 0.0, -0.54, -0.54, -0.54, -0.61, -1.19, -1.19, -1.19, -1.19, -1.73, -1.73, -1.73, -1.55, -1.7, -1.7, -1.7, -1.7, -1.7, -1.7, -1.7, -1.7, -1.7, -1.7, -1.7, -1.7, -1.7, -1.7, -1.7, -1.7, -1.7, -1.7, -1.7, -1.84, -1.67, -1.67, -1.67, -1.67, -1.67, -1.67, -1.67, -2.36, -2.36, -2.36, -2.36, -2.36, -2.18, -2.18, -2.4, -2.4, -2.4, -2.2, -2.86, -2.86, -2.86, -2.86, -2.6, -2.6, -2.6, -2.86, -2.86, -2.86, -2.48, -1.8, -1.41, 0.0, 0.0, 0.0, 0.0, 0.0, 0.0, -0.8, -1.49, -1.49, -2.2, -1.6, -0.8, 0.76, 2.33, 3.07, 4.55, 5.2, 5.3, 4.47, 6.07, 5.86, 6.28, 6.28, 6.28]}]